GFSFLT2_850_spd_000.txt.gz
Wind_Speed
16 14 12 10 9 9 8 8 8 9 10 10 10 10 11 13 12 12 13 13 14 16 18 17 16 15 15 16 16 17 17 15
14 11 10 10 11 9 9 9 10 10 11 10 11 11 11 10 11 11 11 12 12 13 15 16 17 18 17 17 17 17 15 16
11 11 11 12 12 11 10 11 12 12 12 10 10 9 9 10 9 9 10 10 11 13 14 16 17 19 19 18 18 17 17 16
12 11 12 12 11 11 12 11 11 10 11 9 9 7 7 7 7 7 7 8 9 11 12 14 16 19 21 20 18 17 14 14
13 11 11 11 12 12 11 10 9 7 9 8 6 5 5 5 4 5 6 8 11 12 13 15 17 21 24 23 23 22 18 14
12 11 10 10 11 10 7 8 7 5 5 4 3 3 3 2 2 5 9 11 12 14 15 18 21 23 23 23 26 24 20 19
11 9 9 8 7 7 6 4 3 3 2 2 2 1 2 4 7 8 9 10 11 13 18 22 23 22 21 25 24 21 18 18
9 7 9 9 6 7 8 7 5 7 5 4 4 4 5 7 9 9 9 11 15 18 24 24 21 19 21 18 15 17 20 20
14 13 13 10 7 7 11 10 13 14 11 10 9 9 10 11 10 10 14 18 20 25 26 21 18 18 18 17 17 18 20 22
19 19 17 12 5 13 13 18 17 18 14 12 10 10 10 10 14 18 19 22 26 26 22 20 19 20 18 19 22 23 24 24
23 19 17 11 14 17 18 13 11 7 8 7 9 9 12 15 18 20 23 25 24 22 20 19 21 21 21 22 22 24 26 28
17 15 12 9 7 8 10 7 3 4 9 7 10 13 16 20 22 21 24 26 25 22 22 22 24 25 26 27 28 28 28 27
12 11 6 3 4 13 6 4 9 10 9 14 16 18 21 19 22 23 25 21 21 20 20 21 24 27 30 31 32 30 27 27
14 11 11 7 7 1 5 8 8 9 13 15 17 18 18 19 20 20 17 17 20 22 24 23 26 28 28 28 15 21 12 16
16 14 12 10 9 7 9 9 9 12 15 16 18 19 17 18 17 15 20 29 31 31 28 27 27 25 23 15 9 6 23 21
11 10 7 4 5 7 10 11 11 13 15 17 17 16 16 17 20 29 35 35 30 22 25 27 27 26 20 17 13 16 14 19
8 6 4 5 8 9 13 14 13 14 15 16 15 19 25 28 29 30 27 23 24 23 25 26 25 21 21 22 23 19 14 14
4 1 4 7 9 10 11 11 11 12 14 16 21 23 23 28 26 25 24 19 18 20 23 23 21 19 17 15 15 17 18 16
2 1 3 3 6 8 7 9 12 14 15 18 22 23 24 24 23 22 14 12 11 14 19 22 19 17 15 14 17 18 18 17
3 1 5 8 7 7 9 12 16 19 21 24 27 27 26 24 22 20 22 23 27 14 14 18 16 17 16 17 15 15 16 18

GFSFLT2_850_spd_003.txt.gz
Wind_Speed
17 14 13 12 11 11 10 11 10 11 11 10 11 11 11 11 11 11 11 12 12 14 14 14 15 15 17 18 18 18 18 17
16 14 12 11 10 10 9 10 11 11 11 10 11 11 11 10 9 9 9 9 9 10 10 11 14 18 23 25 23 20 18 15
12 11 10 10 10 8 8 10 10 10 10 10 9 9 8 8 6 7 6 6 8 9 10 9 13 16 20 22 21 20 18 14
12 11 10 9 8 8 8 10 10 10 9 9 8 6 6 5 4 4 4 6 9 11 11 11 13 16 22 24 22 22 22 18
10 9 8 8 6 6 7 8 8 6 8 7 5 4 3 3 2 2 4 5 7 9 10 11 15 19 21 22 24 23 22 18
11 10 9 8 8 7 6 7 7 5 4 5 4 3 3 2 2 4 5 6 9 10 11 14 19 21 22 21 21 22 20 19
12 13 12 11 8 6 5 3 4 3 3 5 5 5 4 5 6 7 9 11 13 15 17 21 23 22 21 19 20 18 18 18
13 12 11 10 6 2 2 4 9 9 11 11 10 11 10 8 9 10 12 15 18 19 22 25 24 21 19 18 17 16 18 20
13 13 12 9 5 6 8 15 14 13 14 16 14 16 12 10 13 16 17 18 20 24 25 25 24 22 20 20 18 20 21 23
15 14 14 10 4 13 18 15 17 20 21 14 7 6 10 10 14 15 18 21 22 24 23 21 20 20 21 21 22 25 27 29
18 19 15 12 12 18 17 15 8 7 7 2 3 5 10 14 18 19 18 22 25 22 21 21 21 21 22 23 23 26 29 31
15 12 9 13 10 8 7 2 2 6 7 6 10 13 14 19 18 17 20 19 18 19 20 22 23 24 25 26 30 33 32 27
7 7 8 3 4 4 4 5 8 11 8 11 13 16 18 21 18 18 18 17 18 18 21 24 27 28 27 21 23 24 21 22
12 13 10 8 7 3 6 5 2 6 11 14 16 17 19 19 18 17 18 22 25 28 28 26 23 25 22 16 17 16 15 19
17 14 12 9 8 5 1 4 6 10 13 15 16 18 17 17 18 21 25 28 28 24 20 17 16 21 23 12 11 11 18 12
19 18 14 10 5 2 4 6 8 11 13 14 15 16 18 20 23 27 27 25 20 19 18 17 18 14 15 11 15 15 16 19
17 12 8 5 4 4 5 6 7 8 9 11 15 19 21 25 27 27 24 21 18 17 15 15 18 20 20 16 12 12 13 14
14 10 9 6 4 4 6 7 9 12 15 18 20 23 26 27 28 25 24 23 21 19 18 21 20 21 16 10 10 12 14 13
12 9 5 2 3 7 9 11 13 16 20 23 25 28 29 28 24 22 20 19 15 14 13 12 16 13 12 10 12 12 12 12
12 7 2 3 6 9 9 11 16 20 24 26 27 27 27 25 22 18 17 15 15 22 15 16 12 13 14 14 15 16 18 18

GFSFLT2_850_spd_006.txt.gz
Wind_Speed
17 16 15 12 10 9 10 9 8 7 6 6 7 8 8 8 8 8 10 9 10 10 10 9 11 15 19 23 23 18 13 12
15 13 10 9 8 9 9 9 7 6 6 7 7 6 6 7 6 6 7 6 5 5 5 6 9 12 16 20 24 17 14 12
12 11 10 10 9 8 6 7 7 6 5 6 6 4 3 2 4 5 5 4 3 4 4 6 9 14 17 18 19 16 15 13
14 13 11 10 7 7 6 7 5 4 5 6 3 2 2 3 2 2 1 1 1 4 6 9 11 11 13 17 17 19 13 13
12 11 9 9 7 8 7 6 6 6 6 5 2 1 3 5 4 3 4 5 4 6 7 9 16 18 18 20 19 14 12 13
11 10 10 10 9 9 10 9 7 6 5 5 4 2 3 7 6 6 6 6 9 9 9 18 21 24 25 23 23 18 14 14
13 13 14 13 13 11 9 7 4 5 5 6 7 6 4 8 13 11 10 11 12 12 12 16 18 15 17 21 19 19 23 14
14 13 14 13 12 9 4 4 7 8 11 13 12 11 15 11 18 14 13 15 17 16 19 21 16 18 14 17 17 16 14 16
16 16 16 13 15 11 4 14 19 14 13 15 14 12 9 10 12 13 14 17 19 20 18 14 14 15 16 16 16 15 15 14
16 15 15 13 11 9 13 21 20 10 10 8 4 2 2 9 11 14 17 19 18 15 13 14 16 17 17 17 18 17 18 17
16 14 11 9 8 15 16 9 2 3 7 5 1 1 5 9 13 17 17 16 15 14 11 15 15 17 18 20 21 22 23 23
15 10 4 8 10 7 4 1 2 4 4 3 4 7 9 11 13 16 14 9 10 11 15 15 16 16 19 25 23 24 24 22
12 8 6 5 6 6 5 2 5 8 5 6 9 11 12 13 9 11 12 12 14 16 16 18 20 18 21 23 23 23 17 19
13 10 8 9 7 5 4 4 5 5 8 11 13 15 14 12 15 14 14 16 17 16 16 18 18 16 17 21 23 23 20 13
14 14 13 10 9 5 5 3 4 3 5 6 11 15 16 17 17 18 19 18 18 16 14 13 13 14 15 17 21 23 26 24
17 16 13 13 11 8 6 1 2 7 8 8 11 16 21 23 20 24 23 20 18 14 12 12 10 15 18 18 18 19 23 27
19 19 17 14 10 4 2 1 4 6 8 13 15 17 18 19 21 20 20 19 16 12 10 8 11 14 20 19 18 18 18 20
20 17 15 11 6 4 3 8 10 10 13 15 16 18 19 19 19 20 19 16 13 9 7 10 13 15 12 12 13 15 17 18
16 14 11 8 3 3 8 11 11 10 14 14 19 18 19 19 20 18 14 13 9 8 8 18 11 12 11 12 14 15 16 18
16 13 8 4 1 5 8 8 10 11 16 19 16 17 18 20 18 12 8 7 7 11 13 13 12 11 12 14 17 18 18 19

GFSFLT2_850_spd_012.txt.gz
Wind_Speed
25 19 16 12 12 14 11 9 7 7 7 9 9 9 9 8 8 8 8 7 6 6 8 10 14 16 19 21 17 18 17 17
21 17 10 12 13 11 9 8 7 8 9 11 12 12 8 6 5 3 3 4 6 7 9 11 13 16 14 19 16 14 13 17
16 18 15 12 11 11 9 9 9 10 12 14 13 11 7 5 8 3 3 5 7 9 12 12 11 14 15 15 14 15 12 14
19 18 16 12 14 13 13 14 12 11 11 13 7 8 5 1 4 6 7 10 11 9 12 11 8 14 9 14 13 16 10 11
18 17 16 15 13 16 13 10 10 11 12 7 6 6 4 4 2 4 6 9 6 10 10 11 17 13 17 16 13 13 11 11
18 19 18 16 18 14 13 12 6 7 5 6 2 3 4 2 3 5 2 3 6 9 12 10 6 11 13 14 16 13 14 15
15 16 19 18 18 16 17 14 11 7 5 6 5 6 4 4 9 12 10 6 7 10 11 14 18 20 18 15 16 17 19 17
18 16 24 18 19 16 14 12 9 5 8 7 6 5 9 8 9 7 7 15 14 14 17 20 17 13 14 16 17 18 16 15
18 22 20 19 16 14 10 4 4 5 8 4 7 8 8 8 3 7 14 12 15 20 21 20 17 17 14 17 17 17 16 17
20 21 18 19 18 12 3 11 12 5 2 6 4 2 1 1 7 10 10 11 14 15 15 12 15 17 18 21 19 20 19 19
22 20 20 20 17 7 6 5 3 6 4 5 5 3 3 4 8 11 13 9 9 13 14 17 21 20 20 21 25 22 19 19
20 20 17 16 4 4 8 9 10 9 7 5 9 5 6 5 4 11 13 11 12 14 20 18 20 20 22 22 22 18 17 14
17 17 15 12 8 9 11 11 8 5 3 3 2 4 7 11 5 9 10 12 15 19 19 18 18 22 21 18 19 21 15 18
18 16 10 10 12 15 14 12 12 4 6 7 7 9 8 6 12 14 14 17 17 16 19 22 20 16 17 20 21 22 15 19
18 17 13 15 17 15 15 9 3 9 8 2 3 9 9 8 10 13 16 17 17 19 20 18 16 14 14 16 22 16 24 19
19 18 21 19 12 14 13 12 16 11 6 6 7 7 11 13 14 16 18 18 19 17 15 19 20 14 14 14 18 20 24 27
21 23 18 16 17 17 16 11 9 6 7 7 7 11 11 12 13 17 18 17 15 16 15 17 17 16 14 16 16 16 17 21
25 21 17 17 20 20 19 16 12 8 6 7 11 9 12 12 16 17 16 13 12 13 17 16 16 19 22 20 14 16 17 19
25 20 20 19 20 19 17 11 4 5 6 10 11 10 11 13 17 15 14 9 14 16 18 20 22 20 16 12 12 16 16 18
22 23 20 19 19 17 11 6 6 8 10 11 9 10 11 14 14 13 10 13 15 18 15 14 14 15 16 9 15 14 15 17

GFSFLT2_850_spd_015.txt.gz
Wind_Speed
22 17 15 23 14 14 13 11 11 12 14 15 14 13 13 12 12 11 9 8 8 10 12 13 13 14 16 12 11 17 18 15
16 15 14 17 16 13 12 11 12 14 16 16 15 14 12 11 7 6 5 7 8 9 11 9 10 10 8 9 11 12 14 15
26 25 21 19 17 15 13 12 15 17 17 16 14 11 11 10 10 9 8 11 8 10 12 7 7 11 13 13 14 15 14 12
21 19 16 15 15 15 14 16 18 19 16 13 11 10 9 9 9 8 10 8 9 9 8 6 10 10 12 12 15 15 12 12
21 20 19 14 14 19 17 16 18 20 12 13 11 10 9 5 4 2 7 9 6 5 4 3 2 5 8 13 16 16 15 13
26 24 20 19 19 20 18 17 14 16 13 12 5 4 2 3 3 3 3 2 3 5 5 6 7 10 16 16 14 16 14 14
25 21 19 18 18 19 16 13 13 11 8 5 1 3 3 5 4 4 2 3 7 11 11 13 17 19 17 10 13 14 12 10
26 27 23 24 22 21 17 16 13 8 5 1 5 6 4 4 3 2 2 8 11 12 14 16 18 14 12 14 15 14 14 14
24 30 26 24 22 20 16 14 7 4 5 2 4 5 3 3 3 4 7 8 11 13 17 18 18 16 19 13 14 15 16 17
34 28 25 22 19 18 12 5 3 1 5 6 6 4 3 2 4 6 7 9 13 14 13 12 13 18 17 11 13 17 18 16
26 25 23 22 22 15 6 6 4 7 9 7 7 5 3 3 6 9 9 5 8 12 14 17 22 16 14 17 17 16 16 16
25 22 23 25 19 6 9 12 13 11 9 6 5 3 3 3 6 9 11 10 12 15 17 20 17 17 20 23 13 13 15 14
25 25 25 24 13 9 16 16 12 8 6 8 4 3 5 6 7 10 14 15 15 18 18 16 18 22 21 20 21 16 10 15
22 21 23 20 14 12 15 14 10 8 7 6 5 2 5 8 12 12 15 16 17 15 17 19 16 17 18 19 13 19 10 14
22 19 19 22 22 21 23 18 13 13 11 8 5 7 10 12 14 16 18 19 19 19 18 16 14 14 16 14 7 6 21 11
22 20 24 20 29 24 27 24 21 19 17 13 10 11 14 15 17 16 16 17 17 17 16 17 19 20 15 13 14 16 16 14
25 26 27 28 25 25 26 24 25 25 20 14 9 11 14 15 15 15 16 17 14 13 13 14 17 16 14 16 18 21 14 16
28 31 31 29 26 25 27 29 29 24 17 11 10 15 14 14 14 15 16 13 12 13 14 15 15 16 20 17 15 9 11 15
31 33 34 31 30 29 28 26 23 19 12 10 13 13 12 13 14 15 14 12 13 16 18 22 18 15 17 14 13 12 15 17
31 34 33 31 29 28 26 24 19 14 10 11 12 10 11 12 13 13 11 10 15 18 21 16 17 16 20 19 16 16 10 11

GFSFLT2_850_spd_021.txt.gz
Wind_Speed
22 30 34 37 24 22 18 14 12 16 18 19 21 22 21 20 17 16 15 14 11 10 9 8 7 8 10 10 10 13 14 14
30 31 40 28 22 24 14 10 16 18 18 19 20 19 19 17 15 14 14 12 9 6 5 3 3 7 8 8 9 14 16 14
13 6 11 35 30 16 14 15 18 19 20 19 19 18 17 16 14 12 11 8 6 4 1 3 3 5 8 10 11 14 13 13
26 39 40 31 24 18 16 18 19 20 21 20 17 16 15 14 12 9 8 8 5 1 1 3 5 5 6 9 14 13 12 13
29 26 23 23 21 20 21 23 22 21 19 18 14 13 12 11 8 7 6 4 2 1 2 3 3 5 10 12 14 15 14 12
29 20 21 21 20 20 22 23 21 19 17 13 11 10 9 8 8 6 6 4 3 3 4 5 7 9 11 12 12 14 16 11
27 21 21 21 23 24 26 23 18 16 14 11 8 7 6 7 9 8 7 7 5 6 8 8 9 10 10 8 12 17 13 12
25 23 22 24 23 22 22 21 17 16 13 10 10 10 8 9 8 7 6 5 7 7 7 8 10 11 12 14 17 16 12 12
25 24 25 25 24 23 22 21 19 16 12 13 13 11 9 9 8 7 6 6 7 9 11 12 12 13 14 15 12 11 14 16
26 27 26 25 23 24 23 21 18 16 10 14 14 12 11 11 8 5 6 7 10 11 11 12 12 14 14 11 10 13 15 11
29 27 25 23 22 21 19 22 20 17 15 14 13 13 11 8 5 4 7 8 11 12 13 14 15 13 12 12 12 13 12 16
29 28 25 25 27 23 23 19 18 16 14 15 14 12 10 7 5 5 8 12 15 16 16 16 14 14 13 13 13 14 16 17
28 29 28 30 31 29 25 18 16 17 18 15 15 14 10 5 5 8 12 15 18 19 18 17 17 17 15 11 13 15 13 11
32 31 31 32 30 28 24 17 18 19 18 17 15 13 10 8 7 9 13 18 21 21 20 20 20 17 14 13 6 10 14 18
36 38 35 34 32 29 22 18 21 22 21 20 17 15 13 9 10 12 16 19 19 19 19 18 16 16 13 8 6 5 10 16
33 36 38 37 34 32 27 25 26 26 23 22 19 15 13 12 13 15 17 18 17 18 17 14 12 10 11 10 11 13 12 10
36 37 38 36 34 32 30 30 28 26 25 23 20 19 17 15 15 16 15 13 14 15 13 11 9 10 12 14 15 13 13 16
40 39 37 35 35 35 36 35 30 30 28 26 24 21 18 16 14 13 11 12 19 16 12 12 13 15 13 12 13 12 12 13
42 39 38 36 39 39 36 36 33 33 31 30 26 21 17 16 13 10 15 24 16 12 11 13 15 14 14 13 13 15 14 15
43 41 37 36 37 39 39 37 39 36 33 28 24 21 17 12 9 15 21 13 11 12 13 13 12 14 15 15 16 18 15 17

GFSFLT2_850_spd_024.txt.gz
Wind_Speed
21 21 28 32 26 24 23 22 22 21 21 23 24 24 22 20 17 15 14 12 11 9 7 8 8 10 10 9 11 14 16 16
21 20 35 30 23 22 22 21 21 19 19 22 23 22 20 18 15 13 10 9 7 5 5 7 7 9 7 8 11 13 16 14
19 35 40 35 27 20 18 18 17 19 21 22 22 20 18 15 14 11 8 5 4 3 3 6 7 8 8 10 13 15 15 14
32 36 38 35 28 25 13 14 17 19 20 20 19 18 15 13 11 9 7 3 2 1 3 4 8 9 8 11 13 14 14 12
22 21 36 32 30 25 17 17 18 20 20 18 16 14 13 12 9 7 4 3 1 0 2 5 6 7 11 12 13 14 16 12
34 33 31 25 22 21 20 20 22 21 19 15 12 12 11 10 8 6 5 3 1 2 4 5 7 9 10 11 12 14 16 12
28 27 25 23 21 21 22 22 21 18 17 15 12 10 9 8 7 7 5 4 6 5 6 7 7 9 10 11 13 15 16 11
25 24 23 21 19 20 22 23 20 19 16 13 12 11 7 7 7 7 7 5 5 6 7 9 10 10 11 14 16 15 11 13
23 19 20 22 21 22 24 21 18 18 15 11 11 10 8 9 9 7 6 6 7 8 10 10 10 12 13 14 11 11 13 13
22 21 21 23 24 24 24 21 17 17 15 14 13 12 11 11 9 7 7 7 7 9 9 9 11 12 12 11 11 12 13 9
22 20 21 23 22 21 21 20 20 17 17 14 13 13 13 11 10 8 7 7 6 8 10 11 11 10 10 11 12 12 11 13
24 24 24 24 22 20 22 22 22 20 18 15 15 15 14 13 11 8 7 6 6 8 9 11 11 11 11 11 10 11 12 10
28 26 26 25 26 24 25 25 24 21 18 17 17 17 17 14 11 9 8 6 7 9 12 12 13 13 12 10 11 12 10 9
30 30 29 29 29 27 27 21 21 19 18 19 19 18 16 15 13 10 8 7 11 12 12 14 15 14 11 12 5 9 10 12
31 31 31 30 28 28 27 24 22 21 22 23 23 21 19 17 14 12 9 10 11 13 15 18 17 15 13 9 5 4 13 13
29 30 31 32 32 32 31 29 29 26 24 25 24 22 20 18 17 14 11 11 11 12 17 21 18 14 13 12 12 13 9 9
30 32 34 35 35 35 33 30 30 26 25 25 25 24 22 21 18 15 12 11 9 15 20 21 17 13 12 12 11 13 13 13
36 35 35 39 40 38 36 35 33 30 26 27 27 26 25 22 20 16 14 11 14 23 25 18 14 13 12 12 11 10 12 13
39 40 40 41 42 42 38 36 36 32 29 29 31 30 28 25 21 13 12 15 21 23 18 18 14 15 14 12 11 12 13 12
42 43 43 39 40 40 36 37 36 35 34 32 32 33 30 27 22 24 21 24 29 20 17 12 15 14 12 13 14 14 13 12

GFSFLT2_850_spd_030.txt.gz
Wind_Speed
34 35 35 32 30 30 31 32 34 34 32 30 29 26 24 22 20 19 17 16 15 13 12 12 12 10 10 12 14 15 11 11
35 33 33 34 32 27 26 29 34 34 32 30 27 23 20 18 16 15 15 14 12 11 11 11 10 8 8 11 13 15 9 9
36 37 40 44 34 31 26 27 31 33 30 27 24 22 19 16 14 13 12 10 10 9 8 8 9 8 10 12 13 8 8 8
33 38 40 40 40 32 27 28 30 31 29 25 22 21 16 14 14 11 9 8 8 6 5 6 7 6 10 10 8 9 8 8
38 41 39 35 32 30 27 26 28 25 22 25 20 19 17 13 12 11 8 6 5 3 3 4 5 5 8 7 8 8 6 6
39 39 38 39 39 40 32 27 24 23 25 24 21 18 16 13 12 10 9 8 4 2 1 4 6 7 8 10 11 8 6 6
43 41 42 45 35 36 35 27 19 20 24 17 16 16 14 13 10 10 10 7 4 2 2 3 3 7 9 10 12 11 8 6
35 36 35 33 31 27 24 23 18 18 16 19 16 15 14 11 11 11 9 7 5 3 3 2 3 5 8 9 9 8 8 5
31 23 24 34 24 17 18 17 17 17 17 19 16 14 12 10 11 11 9 9 7 4 3 5 4 5 6 7 8 7 7 5
24 23 25 25 20 16 16 17 18 16 20 17 15 15 13 11 11 13 13 11 6 5 2 2 1 2 3 3 4 5 7 6
23 22 20 20 19 17 18 19 18 17 19 18 16 15 13 14 14 15 12 12 10 6 5 3 1 1 2 4 5 3 3 3
22 22 20 18 15 16 16 19 19 19 20 19 18 15 15 16 16 16 16 13 10 8 7 5 2 2 4 5 4 5 5 5
23 23 21 19 18 19 19 21 19 21 20 22 21 18 16 18 19 19 17 12 11 10 8 6 4 3 3 7 8 8 7 7
24 24 22 22 20 20 20 20 20 21 26 24 23 22 21 21 22 20 19 16 14 13 9 6 5 5 4 9 11 12 8 9
25 24 22 22 22 21 19 20 24 26 28 27 25 24 24 24 24 24 23 20 17 15 12 10 6 7 13 12 9 10 8 10
26 26 25 24 24 23 24 24 21 26 31 26 27 24 25 26 26 27 25 24 21 18 16 11 10 14 17 11 12 11 9 10
27 27 26 26 27 28 25 25 21 19 26 23 27 26 27 29 29 29 28 26 22 20 14 12 14 14 10 10 10 9 9 11
28 29 28 28 29 32 32 27 24 26 29 29 30 31 30 31 31 31 30 26 23 18 15 13 13 15 8 10 11 10 11 12
29 30 31 30 32 35 37 36 35 34 35 34 32 32 33 34 33 33 31 27 25 20 14 22 17 10 10 10 10 10 11 11
31 32 32 30 33 36 36 36 36 35 36 37 35 34 35 34 35 25 32 30 22 16 23 20 13 10 12 13 11 10 11 11

GFSFLT2_850_spd_033.txt.gz
Wind_Speed
32 31 29 31 29 29 31 31 33 31 32 30 29 27 26 24 23 22 19 17 15 14 13 13 11 12 13 15 18 18 12 10
32 33 31 29 27 30 32 33 31 31 29 28 26 25 24 22 20 18 16 14 12 12 11 11 10 10 12 15 16 15 10 9
33 32 30 28 27 25 26 30 30 28 25 24 24 23 19 17 16 16 14 12 10 10 9 10 8 10 14 15 13 8 8 7
32 35 36 39 36 33 29 31 33 27 25 23 16 19 13 15 15 13 11 10 9 8 8 10 13 9 10 11 8 8 7 5
39 46 48 46 44 42 40 33 27 23 23 18 21 16 14 14 15 13 12 10 9 7 8 6 4 4 3 3 6 6 5 2
32 34 39 41 35 37 30 25 27 24 20 15 14 17 12 9 9 11 12 10 9 7 5 0 2 3 4 5 5 4 4 2
31 36 40 37 34 30 28 24 27 23 22 16 17 9 11 11 12 11 10 11 8 7 3 3 1 2 3 3 4 4 4 3
32 32 32 34 35 33 33 29 27 32 18 22 14 14 15 13 13 11 10 9 8 6 6 3 3 2 2 2 4 3 3 5
30 26 22 32 34 30 34 30 17 14 15 15 14 14 15 12 11 11 10 10 10 11 7 5 4 4 3 2 2 3 2 1
25 27 24 27 31 25 19 21 19 18 17 22 18 15 16 13 11 11 11 10 9 8 6 5 5 5 4 1 1 2 4 2
24 23 25 27 22 19 16 15 19 16 18 19 17 16 15 14 11 12 13 10 10 9 8 8 6 5 3 2 3 3 5 3
24 22 26 28 23 17 17 17 18 18 20 17 16 16 16 14 13 14 13 11 10 11 10 7 7 6 5 6 7 6 4 5
24 24 23 20 19 19 19 19 19 21 20 17 17 16 16 16 13 16 15 13 13 14 10 10 7 7 4 7 11 12 10 6
24 23 22 22 19 19 20 20 20 20 19 18 20 18 18 18 18 16 17 15 17 16 14 10 8 8 4 8 12 10 10 9
27 25 24 23 22 20 19 19 20 20 19 18 20 23 22 20 19 18 19 18 18 19 18 14 10 9 8 7 8 10 9 10
27 26 26 25 25 23 24 23 23 22 21 22 24 27 25 20 20 21 21 19 17 19 17 14 14 8 8 9 12 11 8 9
29 28 28 27 27 27 25 25 23 19 20 21 24 21 25 23 21 21 22 21 18 21 17 17 15 10 9 14 14 12 12 11
30 29 30 29 28 28 29 27 25 23 24 21 20 25 26 25 20 24 27 23 18 15 19 16 14 16 24 15 14 14 13 14
30 31 31 31 31 31 31 30 26 25 24 25 23 27 29 24 23 30 31 29 29 31 29 26 18 22 23 11 14 14 13 13
31 31 31 31 33 35 32 30 30 30 31 31 33 31 28 28 31 36 38 35 32 30 23 23 22 27 14 12 13 14 12 13

GFSFLT2_850_spd_036.txt.gz
Wind_Speed
27 29 29 28 28 25 26 27 31 31 31 29 28 27 26 24 23 22 20 18 17 16 15 15 14 16 19 20 21 17 8 14
24 24 24 28 26 27 28 28 30 31 29 27 27 26 26 24 22 20 18 16 15 14 13 12 13 15 17 18 17 15 6 1
34 31 26 25 24 28 29 31 28 29 28 25 25 24 23 21 19 16 13 12 12 12 12 12 15 15 15 13 13 13 1 4
33 29 29 33 34 29 29 28 29 28 27 24 24 21 19 17 15 12 11 10 9 10 13 14 11 11 8 6 13 10 1 4
34 34 32 34 36 38 37 33 32 27 26 22 21 17 14 15 15 13 11 10 8 11 10 8 6 6 2 3 13 7 3 6
36 38 39 38 40 38 44 43 34 24 23 20 19 13 11 13 10 10 10 8 7 6 6 6 4 1 3 6 9 10 2 6
29 35 40 40 36 34 39 39 34 23 23 17 14 12 11 8 5 6 9 5 7 10 4 2 2 3 4 7 8 8 10 6
31 35 38 36 38 30 27 35 32 25 24 17 12 8 8 10 14 10 10 14 7 5 3 3 3 3 2 5 6 2 4 4
18 28 31 33 31 32 29 22 25 30 21 21 15 15 14 16 17 14 14 8 10 11 12 10 7 7 6 1 3 2 2 6
27 31 32 31 34 36 31 29 29 28 19 15 20 18 14 17 13 16 14 16 18 16 12 6 6 3 4 2 7 5 5 3
26 28 27 25 24 28 30 32 25 18 18 21 21 19 19 18 15 16 18 19 14 12 11 9 9 9 10 11 10 6 10 3
29 28 27 33 30 33 25 26 23 23 23 24 20 23 20 19 17 19 22 16 16 17 15 15 12 9 8 12 14 12 9 11
29 31 32 37 31 25 25 25 23 25 24 30 22 21 22 21 19 22 21 18 17 17 19 19 16 18 16 11 15 17 15 13
26 30 34 34 32 28 26 23 24 24 24 24 21 25 24 23 21 23 19 20 20 21 23 20 14 16 10 11 10 11 17 11
30 29 25 25 23 20 25 25 23 22 30 24 25 20 24 24 20 23 23 19 21 26 26 20 15 18 15 9 3 3 10 14
30 30 29 28 30 30 29 29 30 29 29 25 24 27 26 24 22 22 23 18 20 25 25 21 19 16 11 11 6 10 10 7
31 35 33 32 29 29 30 29 29 28 26 24 20 24 27 26 22 22 21 20 21 15 16 17 19 22 19 14 13 18 15 16
38 37 37 35 35 31 30 30 30 28 29 29 33 30 27 27 25 25 26 27 27 27 31 31 30 24 20 17 15 13 15 16
38 38 38 36 36 35 35 33 28 33 27 33 33 28 25 30 30 30 27 21 27 34 33 34 29 27 23 28 24 12 20 20
41 41 40 39 38 37 36 32 33 25 29 31 28 35 31 26 26 27 26 33 33 32 33 32 31 31 28 23 20 17 18 18

GFSFLT2_850_spd_039.txt.gz
Wind_Speed
26 41 38 32 31 30 25 29 35 36 34 33 31 29 26 27 26 24 22 20 20 20 18 17 19 20 20 19 10 4 6 9
18 29 38 31 31 31 33 32 34 34 34 32 30 28 26 25 24 21 20 18 17 17 17 17 19 21 20 17 10 5 5 6
19 16 28 30 30 29 29 30 31 31 31 31 28 28 26 23 20 17 16 15 15 15 18 18 16 14 15 14 7 6 2 6
29 31 28 27 31 28 27 30 31 31 31 30 29 28 24 20 17 15 13 13 14 17 14 11 11 9 10 13 4 1 3 5
28 29 32 36 42 41 38 28 30 30 30 30 27 23 20 18 16 14 12 11 12 11 9 7 7 5 3 11 5 1 2 5
31 29 29 31 33 39 38 36 35 32 31 27 25 21 18 17 15 13 11 11 11 8 6 4 3 4 6 12 7 4 0 4
32 31 31 38 39 41 42 39 34 31 28 23 20 15 15 14 12 10 11 11 9 6 2 5 5 5 8 11 10 8 1 3
37 36 40 41 41 42 44 42 33 34 25 27 20 12 11 11 11 9 12 9 6 5 6 5 5 3 3 5 7 7 4 6
33 36 38 41 43 40 40 37 35 34 30 23 20 14 13 12 10 8 9 7 11 9 8 6 6 6 5 5 4 2 1 6
31 36 39 39 34 39 40 43 32 36 32 22 17 17 15 16 16 17 15 13 14 13 14 11 11 9 8 8 6 5 4 8
27 29 30 37 38 39 38 37 37 35 36 18 16 18 19 20 17 17 15 16 18 19 17 17 13 11 11 10 10 10 8 9
25 32 34 37 38 36 33 38 35 30 25 24 20 19 20 23 19 18 19 21 21 21 16 15 15 13 14 13 12 13 12 13
32 35 36 36 37 35 36 36 30 30 30 23 22 23 22 22 22 22 23 21 21 21 21 21 21 18 15 15 15 16 18 17
33 35 38 34 31 34 36 33 32 30 28 27 28 27 25 26 24 27 24 24 22 23 24 25 24 22 20 20 15 15 21 21
38 41 38 36 35 34 33 29 28 28 29 30 29 28 24 29 27 28 26 24 23 26 26 26 23 22 20 17 9 6 7 12
38 40 40 38 35 32 33 32 34 31 29 31 29 28 28 32 29 29 30 26 22 26 27 27 23 17 19 20 21 14 7 5
35 38 38 36 33 33 33 37 33 26 27 29 30 31 31 31 27 29 30 29 26 27 25 28 26 23 26 24 22 17 10 14
34 36 37 36 35 35 37 36 35 36 34 34 31 34 32 32 32 32 28 30 31 29 29 28 31 31 31 31 28 24 19 17
39 37 40 39 38 35 36 40 36 40 32 30 32 29 29 27 33 31 34 34 34 29 27 28 32 30 31 32 35 34 30 31
43 43 42 44 43 43 40 37 40 35 37 34 29 30 31 38 34 28 32 36 36 30 27 28 30 30 31 29 33 32 30 19

GFSFLT2_850_spd_042.txt.gz
Wind_Speed
18 23 33 30 34 39 39 36 37 36 37 36 35 34 33 31 28 26 25 24 24 23 21 21 23 17 12 10 10 10 12 14
15 16 42 47 35 36 36 33 34 35 35 35 34 33 31 29 26 23 24 22 20 20 20 21 18 12 9 9 9 10 12 13
17 19 27 31 36 37 37 32 33 33 34 34 34 34 31 28 25 22 23 20 19 20 20 19 17 11 7 5 8 9 10 11
22 9 24 34 30 31 32 34 34 35 34 32 32 32 29 26 22 19 19 16 18 16 16 17 16 9 6 4 4 6 6 10
25 28 33 30 39 34 34 35 35 35 33 32 32 30 27 23 19 18 16 16 17 13 11 11 11 7 5 5 4 4 5 6
29 32 39 40 43 44 38 38 36 35 34 34 32 29 23 19 18 16 15 15 13 10 8 7 6 4 5 5 3 3 2 3
29 32 35 38 39 43 42 39 37 37 37 33 28 24 23 20 16 15 15 12 10 9 7 3 3 6 8 7 4 3 1 3
27 34 34 41 47 43 40 39 40 38 35 32 26 22 21 17 15 13 13 13 10 7 4 5 8 8 8 7 5 4 3 4
34 33 34 40 43 48 47 43 39 37 33 28 24 19 18 15 12 12 14 12 9 7 8 9 9 6 6 8 9 5 2 5
36 32 31 41 49 50 46 39 38 33 28 28 21 18 15 14 14 16 12 12 9 11 11 11 8 7 9 9 9 7 5 7
36 38 43 41 40 43 47 40 41 39 30 31 28 20 17 15 14 13 14 15 14 16 15 13 13 12 13 12 12 10 8 10
31 38 40 38 41 45 44 44 39 32 34 35 23 18 17 17 17 17 20 20 19 19 19 17 19 17 15 15 13 12 13 14
35 39 41 42 44 45 46 48 42 36 39 40 21 19 20 22 20 20 24 23 21 21 23 24 24 21 19 18 18 18 18 17
34 38 39 42 42 40 43 40 39 36 44 39 26 21 25 24 22 23 28 26 27 24 25 26 24 23 24 21 19 21 22 22
31 35 36 37 38 38 33 33 36 32 44 41 32 28 27 26 27 28 30 30 30 29 28 27 26 27 26 23 10 14 13 18
32 35 35 33 37 39 37 39 42 44 40 35 35 35 31 32 32 30 32 33 31 30 28 28 27 29 29 27 27 23 16 15
34 37 38 35 36 39 39 45 45 42 39 40 36 37 38 32 31 29 33 35 35 33 31 32 32 34 29 34 30 29 28 26
39 41 42 41 38 40 46 48 46 42 40 39 36 37 37 33 30 32 32 37 35 35 34 33 33 32 32 31 33 32 31 30
43 48 47 45 45 45 46 46 44 42 41 39 37 35 36 36 36 30 33 36 35 37 37 34 31 33 28 32 31 34 34 32
46 46 47 47 47 46 45 44 44 45 44 43 41 40 37 33 36 33 29 28 33 38 36 34 29 32 28 32 30 31 32 34

GFSFLT2_850_spd_045.txt.gz
Wind_Speed
22 35 39 34 31 27 30 39 38 34 38 38 38 37 35 33 33 33 31 28 23 20 21 20 19 16 13 13 13 14 15 14
23 33 27 27 32 34 33 33 38 36 39 38 37 35 33 31 32 31 30 27 24 19 20 18 16 14 12 12 12 15 16 15
21 25 34 37 32 44 37 39 40 38 39 38 37 35 33 31 30 29 28 25 24 20 18 14 11 10 10 11 11 12 14 14
12 11 27 46 48 44 37 36 35 35 39 38 36 34 32 30 27 25 24 22 20 20 16 14 11 9 9 9 10 12 12 13
18 27 17 29 38 41 36 36 38 41 38 38 36 33 31 29 27 23 24 20 20 21 18 15 11 10 10 9 10 9 10 11
28 25 30 28 35 39 40 37 37 38 39 38 36 32 29 25 22 22 20 17 16 16 14 11 9 8 8 9 10 8 8 9
23 25 32 38 43 41 42 43 44 39 39 38 35 31 26 24 21 19 17 16 13 13 11 8 7 8 9 8 8 6 6 6
26 31 36 40 40 46 47 44 41 40 37 37 34 29 24 22 20 19 17 13 11 9 7 6 7 8 9 9 7 5 2 4
28 36 40 42 43 41 41 40 40 39 38 35 30 25 23 22 18 17 14 11 10 9 8 8 10 9 8 8 6 4 2 1
27 32 34 37 40 37 38 36 36 36 36 32 27 24 23 19 17 15 12 12 11 9 9 10 11 9 8 9 9 8 7 4
36 33 32 39 39 39 38 36 37 36 33 29 27 26 24 18 16 13 12 13 13 13 12 12 13 12 10 11 10 10 10 9
33 35 34 41 38 42 40 37 36 32 31 28 25 25 22 16 15 13 14 16 16 17 15 16 16 13 12 13 13 12 13 12
24 30 33 35 39 41 41 45 37 34 30 25 25 20 18 17 15 15 16 19 19 19 18 21 20 18 16 16 17 18 18 18
25 31 30 37 42 44 44 46 37 38 31 35 30 27 26 20 18 19 20 20 23 23 21 22 24 21 22 21 19 22 24 23
24 29 33 35 34 40 44 47 42 41 39 40 37 29 24 22 22 24 21 23 27 27 26 26 27 25 27 24 11 15 16 21
26 28 32 34 35 39 41 45 47 46 44 39 39 36 31 26 23 27 24 27 28 31 30 32 30 30 28 31 32 26 18 14
25 28 32 36 39 40 42 43 43 43 47 47 51 45 43 33 30 28 29 31 32 33 34 37 37 33 32 33 34 34 32 32
27 30 33 36 38 41 41 41 40 41 44 44 44 48 48 40 33 33 35 33 32 34 37 38 38 36 33 35 35 36 34 35
32 32 33 36 39 40 43 45 43 42 45 47 51 50 46 38 37 41 38 34 34 35 36 40 40 40 36 34 34 34 36 33
36 37 39 40 41 41 40 43 45 47 48 49 46 44 40 38 38 38 39 37 32 33 35 36 37 41 34 32 35 32 34 35

GFSFLT2_850_spd_048.txt.gz
Wind_Speed
28 27 29 28 31 29 33 34 33 33 37 36 36 36 33 30 30 28 25 24 24 24 24 22 19 18 18 18 18 17 17 18
27 34 34 31 31 34 44 36 33 32 37 37 37 32 30 30 31 28 25 24 24 24 23 19 18 17 16 16 18 18 18 18
18 35 35 33 36 42 43 38 33 35 39 37 35 33 33 31 29 27 23 21 22 22 21 19 17 15 15 15 16 17 17 17
21 32 32 40 43 46 44 42 37 37 39 37 35 34 32 30 27 25 22 20 20 19 17 15 13 13 14 14 15 16 15 14
17 23 28 38 44 44 46 40 40 38 39 38 35 34 33 30 28 26 24 20 19 19 16 13 11 12 13 13 14 15 14 13
19 19 24 39 47 46 48 44 42 39 39 37 36 34 33 31 28 25 22 20 19 19 17 13 13 12 12 13 13 13 12 11
23 15 22 34 49 47 44 41 39 39 36 35 36 35 33 29 26 25 24 21 17 16 13 11 11 12 11 10 11 10 9 9
23 22 28 33 40 42 44 46 41 40 42 39 36 33 29 26 24 22 20 17 15 12 10 9 9 10 11 10 8 7 5 6
25 25 29 29 39 41 45 43 46 44 38 40 36 31 26 24 22 21 20 17 14 11 10 9 10 10 9 8 7 6 4 3
28 37 33 35 36 36 41 40 41 39 38 39 34 29 25 23 21 20 17 14 11 9 9 11 11 10 8 8 7 5 4 2
30 35 38 36 33 36 36 37 37 35 38 38 34 28 25 22 20 18 15 15 12 10 10 10 11 10 7 7 8 9 8 8
21 27 33 36 35 35 38 36 39 39 35 34 32 28 24 22 19 16 16 14 12 12 11 11 10 9 10 10 11 12 12 12
21 32 31 35 40 33 38 39 40 40 35 29 27 29 26 24 19 17 16 14 12 13 14 15 13 14 14 16 15 17 18 18
19 31 34 36 41 39 40 41 39 39 38 30 30 26 26 22 20 20 16 14 15 16 17 19 18 19 20 19 18 22 24 22
23 24 28 33 39 36 40 38 36 40 38 33 36 33 31 23 25 19 18 17 18 17 20 23 21 21 24 23 10 14 13 16
20 24 27 30 35 41 42 43 46 49 43 35 32 31 36 28 24 22 22 21 21 20 21 25 26 27 29 31 30 30 18 11
21 23 27 30 35 38 43 44 48 50 46 41 37 41 38 38 28 24 25 24 24 24 24 26 31 34 37 36 33 33 33 33
25 27 28 33 36 36 39 43 48 50 50 47 45 44 46 45 39 35 31 29 27 28 28 31 34 37 39 40 39 36 34 33
25 27 30 34 36 39 41 40 42 46 50 48 50 50 51 48 47 44 41 35 32 32 35 35 35 36 37 41 42 39 38 39
28 29 30 32 35 36 37 40 42 46 45 46 47 50 51 51 49 46 42 39 36 38 41 39 36 32 36 38 37 40 39 40

GFSFLT2_850_spd_051.txt.gz
Wind_Speed
35 35 34 33 32 31 29 29 28 29 31 32 34 33 31 30 28 27 26 26 26 26 23 22 21 21 21 20 19 19 21 21
30 36 33 33 28 29 23 31 31 30 33 35 35 34 31 28 27 25 25 25 25 24 21 20 20 19 20 19 19 20 20 20
28 27 39 35 32 28 26 29 32 32 34 36 36 34 31 29 27 25 25 26 25 23 20 19 18 19 19 19 19 19 19 19
27 31 30 31 32 26 31 35 32 33 36 38 36 34 32 29 25 23 24 25 23 21 19 18 17 18 18 17 17 17 17 16
19 14 22 34 32 32 43 45 39 32 36 37 36 34 32 30 27 26 26 25 24 22 19 17 15 16 18 17 18 17 16 14
20 22 23 34 33 45 47 43 40 34 37 37 37 36 34 31 29 26 26 24 22 20 20 16 15 14 15 16 16 15 14 13
16 16 16 35 41 48 45 42 40 34 35 37 37 35 34 31 29 26 24 22 22 21 18 16 17 15 15 14 14 13 12 11
17 12 12 22 34 49 45 43 41 34 34 36 33 33 33 31 29 26 23 21 21 19 15 14 15 16 15 14 12 10 9 8
16 14 16 26 39 47 46 42 47 40 32 34 35 32 32 29 28 25 23 20 20 18 16 15 15 16 15 13 11 9 7 6
19 18 18 23 31 42 43 37 48 44 41 38 36 34 32 29 27 26 22 21 19 16 15 15 16 14 14 11 10 9 6 5
25 24 23 27 36 41 41 40 45 42 40 34 34 34 31 28 26 25 22 21 18 14 13 11 14 14 13 11 11 9 10 10
25 28 31 32 33 37 42 40 41 46 42 36 34 34 30 28 24 22 22 21 18 15 11 11 11 11 11 10 10 12 13 13
19 30 27 33 36 36 41 40 40 42 44 35 37 36 31 28 25 23 23 21 17 14 12 12 13 14 13 13 15 15 17 18
22 23 31 33 37 36 40 42 41 41 35 35 38 36 32 28 27 25 25 21 21 16 14 15 17 16 16 16 15 18 23 22
22 24 30 36 35 37 38 36 37 40 40 39 36 35 32 31 28 26 22 22 21 18 15 16 19 19 19 18 8 11 11 13
23 24 30 34 40 37 45 43 43 45 45 43 37 33 31 33 28 27 25 24 23 21 18 18 20 23 25 28 27 26 17 12
25 27 28 32 32 40 39 44 44 43 46 50 44 40 39 37 35 28 30 30 25 24 23 23 22 24 26 30 32 33 34 33
25 27 30 32 35 41 41 49 48 45 45 49 48 40 46 44 41 39 32 30 26 23 24 25 25 25 28 32 36 34 33 36
26 28 31 36 37 40 44 45 48 52 52 47 49 48 43 42 39 40 39 36 33 30 28 27 29 31 33 33 34 36 38 41
28 29 30 33 37 41 42 43 46 49 47 51 55 54 48 44 42 44 44 43 43 40 39 36 33 35 37 36 32 32 37 31

GFSFLT2_850_spd_054.txt.gz
Wind_Speed
25 27 32 34 34 32 31 32 30 29 30 28 26 28 29 31 30 28 25 24 24 23 22 22 22 21 21 20 23 23 18 19
28 26 27 27 29 28 28 34 32 28 30 26 30 31 32 31 27 27 27 27 24 23 21 21 21 21 21 20 22 25 17 17
28 36 28 27 26 27 25 26 28 28 31 32 28 33 30 27 28 27 28 26 24 22 21 21 21 21 21 22 19 15 16 15
20 24 36 38 31 32 31 27 30 32 33 33 35 33 29 25 28 27 27 26 24 21 21 20 20 20 20 18 14 15 15 14
17 28 39 34 37 36 31 28 31 35 38 34 30 32 31 30 30 29 29 27 24 22 21 17 16 17 17 12 15 14 14 14
9 24 23 23 34 36 32 33 36 33 37 32 35 37 33 28 27 27 29 25 23 21 18 16 16 16 15 15 14 13 13 12
11 16 19 23 38 38 37 41 39 39 35 32 38 37 34 28 26 25 24 22 21 20 17 17 16 17 15 15 13 13 13 11
12 13 15 16 26 36 39 48 41 37 33 37 38 37 35 30 27 23 22 21 20 18 17 16 15 15 15 13 12 12 11 11
14 16 15 19 23 32 43 49 41 38 32 37 39 38 34 30 25 21 20 19 20 18 17 16 15 15 14 13 11 11 10 10
14 14 15 11 24 35 42 41 42 38 37 41 38 32 28 25 23 20 20 20 19 17 16 15 15 15 14 12 11 9 9 8
14 12 14 11 25 34 40 41 37 39 35 37 31 29 29 28 24 22 24 19 18 16 15 14 15 15 13 12 11 10 10 10
20 18 18 17 27 34 35 37 44 40 36 37 33 33 37 30 24 25 23 19 20 18 16 16 14 14 13 12 12 12 12 12
22 24 24 23 26 38 36 34 48 49 44 44 29 35 34 32 24 28 24 19 19 21 16 16 15 16 13 11 12 15 16 14
21 25 27 28 30 34 36 37 46 48 47 48 32 33 33 33 26 28 28 20 22 23 19 17 14 18 13 11 11 13 18 21
23 28 29 30 33 39 39 37 44 44 54 41 37 32 32 30 34 27 28 26 25 24 20 17 15 16 18 11 9 12 11 13
22 28 31 30 31 39 42 44 43 44 49 48 32 30 34 31 33 31 30 28 27 21 21 20 19 18 18 23 21 14 12 12
23 27 29 32 37 40 38 42 44 43 46 48 36 35 36 38 35 34 31 28 26 24 25 25 22 23 19 16 19 21 21 23
23 25 30 34 39 41 40 44 44 44 47 49 43 38 39 42 38 35 32 30 30 30 28 27 27 26 25 21 20 18 19 22
25 27 29 34 39 42 44 42 48 44 47 51 49 46 43 42 39 37 36 32 31 31 30 27 26 26 26 26 22 23 25 25
28 28 28 31 37 42 38 40 47 47 43 50 51 51 52 49 45 45 44 41 39 37 35 33 31 33 32 31 25 24 29 34

GFSFLT2_850_spd_057.txt.gz
Wind_Speed
21 23 25 27 27 26 28 36 36 34 31 30 23 22 23 23 24 25 22 21 20 20 20 21 22 22 21 25 26 22 16 17
24 20 19 26 24 21 24 31 32 33 32 29 28 29 26 27 27 24 22 22 21 21 21 21 21 20 21 26 26 21 16 16
21 22 21 21 20 24 21 22 26 28 29 27 27 30 30 27 25 23 23 22 23 22 21 21 21 21 21 24 19 13 14 12
17 23 22 21 18 20 20 20 17 26 25 26 30 28 26 22 24 24 26 24 23 22 20 20 21 23 23 19 15 13 12 12
15 20 20 25 22 16 19 26 32 26 28 34 36 31 25 25 27 27 28 25 23 22 21 18 16 17 14 8 14 12 12 12
12 17 25 22 25 19 19 26 33 34 32 32 29 29 30 27 29 31 30 26 24 22 18 14 14 14 10 13 12 12 12 11
7 19 21 23 20 21 28 33 25 29 33 35 36 31 31 28 28 27 25 20 20 19 14 15 15 14 13 14 13 13 12 12
9 16 26 30 23 22 24 35 38 34 40 39 38 31 28 26 27 25 23 21 19 17 15 15 15 14 14 14 13 13 12 11
9 11 19 19 19 21 28 43 45 43 47 36 32 34 30 26 27 26 23 21 19 17 16 15 15 15 14 14 12 13 12 12
8 12 15 15 17 21 28 41 47 44 44 35 34 35 31 28 24 24 22 20 20 18 17 16 16 16 15 13 12 11 12 13
10 13 13 14 13 19 31 44 43 42 36 36 34 31 33 28 26 22 23 21 20 18 17 17 17 16 15 13 13 12 12 11
15 13 13 12 14 29 37 44 46 41 42 40 40 31 33 28 24 21 22 19 18 17 17 17 16 16 15 14 13 13 12 13
18 17 16 15 21 32 32 33 35 42 38 33 34 29 30 25 24 22 21 20 18 19 18 17 16 16 15 13 13 14 15 14
19 21 21 19 22 34 33 37 42 46 45 34 38 35 34 33 27 23 25 19 19 20 19 17 16 17 17 14 13 14 17 20
23 22 24 24 24 32 30 38 38 44 43 39 43 37 28 33 26 27 29 23 23 24 21 19 17 17 19 14 13 16 16 18
22 24 25 27 27 33 35 39 44 49 49 47 44 38 33 37 31 26 24 28 24 24 22 21 18 18 15 25 22 14 7 8
21 25 27 30 31 32 34 37 39 51 49 47 43 39 39 34 31 29 27 27 27 25 25 25 24 22 19 16 19 20 19 16
22 24 29 29 32 33 36 37 40 47 54 53 47 40 40 40 34 33 34 33 30 31 29 28 27 24 24 23 21 17 17 20
24 26 27 33 35 35 37 41 44 42 49 48 58 45 41 39 38 35 36 37 37 32 30 32 29 27 26 26 26 25 20 23
27 26 27 31 38 37 36 35 41 39 46 50 55 59 54 45 40 41 43 41 40 37 36 33 35 31 31 30 26 26 24 24

GFSFLT2_850_spd_060.txt.gz
Wind_Speed
19 20 21 24 24 24 22 13 19 30 34 33 29 26 24 22 20 17 18 20 21 22 23 24 26 29 30 28 21 23 15 12
15 16 20 17 25 25 21 28 27 27 34 32 29 25 24 22 20 20 20 21 21 22 24 26 27 28 30 24 23 14 11 12
12 14 15 16 23 24 20 19 15 22 36 32 28 27 24 24 22 21 21 20 21 22 24 25 25 29 28 26 22 14 19 10
10 11 13 17 21 20 16 14 11 15 33 30 30 29 27 22 21 22 21 22 21 22 23 24 26 31 25 22 23 18 11 8
9 9 14 17 18 14 19 15 16 18 31 32 28 28 28 27 30 26 24 22 22 23 24 24 29 29 22 17 20 12 9 7
9 12 15 16 14 18 19 27 19 23 26 30 32 34 28 28 28 28 27 24 23 23 23 20 26 22 12 16 19 14 9 6
8 10 16 18 15 17 18 18 27 26 28 34 34 33 30 25 28 30 28 25 23 24 22 18 16 15 14 19 12 15 9 6
9 9 12 15 19 18 22 26 28 30 37 35 35 33 29 27 29 32 28 23 24 21 18 18 17 15 16 17 13 10 6 4
9 9 12 15 20 22 21 25 26 33 35 25 36 35 30 29 30 31 25 19 17 19 19 18 18 17 18 18 16 16 9 7
9 9 14 16 19 20 19 23 28 35 35 33 39 35 31 30 31 28 25 26 20 20 20 19 19 17 18 19 17 19 14 9
10 11 14 16 17 17 17 23 38 37 40 35 46 39 31 30 30 27 26 31 28 22 20 20 21 20 18 17 16 16 18 19
13 12 12 13 13 15 13 20 36 46 42 43 40 37 34 31 26 25 29 25 24 21 23 21 21 21 17 17 17 15 16 16
18 17 15 14 12 14 16 30 39 42 43 40 32 35 36 34 25 23 26 24 24 22 22 22 19 21 19 19 17 18 17 17
19 17 17 14 14 24 34 36 38 42 38 40 34 37 37 34 29 30 27 23 21 22 22 22 20 22 21 21 16 16 21 24
23 22 19 14 15 26 29 36 39 42 39 41 38 33 34 31 32 34 31 28 24 20 25 24 25 23 26 19 16 16 23 24
21 24 24 19 19 26 34 37 39 45 49 45 39 36 37 39 33 33 31 28 25 26 26 26 22 24 25 28 24 18 7 6
22 27 26 26 25 29 34 34 37 46 46 45 45 40 39 41 38 32 35 31 27 29 29 28 27 24 27 23 28 26 21 16
23 27 29 31 30 30 35 35 39 46 51 49 45 44 44 43 40 35 30 29 33 27 26 27 29 31 25 21 21 23 25 20
25 27 33 36 34 32 33 36 39 42 50 56 54 49 47 49 40 40 37 34 35 38 35 32 32 32 30 29 28 27 24 24
27 29 29 36 36 35 35 37 38 41 41 53 59 55 47 50 48 42 43 36 40 39 38 38 36 36 33 34 32 31 29 29

GFSFLT2_850_spd_066.txt.gz
Wind_Speed
14 16 17 16 17 25 28 33 30 23 26 26 31 32 30 28 25 22 22 23 34 36 36 33 29 26 20 17 17 12 9 14
9 17 21 22 20 24 25 24 25 28 28 29 27 25 27 27 25 20 19 26 35 36 34 32 28 20 19 18 14 10 8 15
8 11 20 22 23 24 25 23 24 29 22 21 24 25 25 24 23 23 23 30 34 35 34 30 25 23 20 19 14 8 9 17
11 12 15 22 23 24 25 26 28 22 29 24 25 20 25 28 25 23 25 30 33 36 36 30 23 24 26 20 12 11 12 16
11 12 13 16 21 24 25 27 26 26 28 28 32 32 33 32 28 27 28 29 32 35 39 32 27 27 23 18 13 12 10 15
11 11 13 14 15 18 21 19 21 27 29 28 34 37 38 35 33 32 32 33 34 35 41 35 32 21 17 17 14 10 6 11
10 11 13 14 15 16 17 21 22 23 24 32 42 40 39 36 35 33 32 33 33 37 40 39 34 19 18 18 15 9 5 11
10 12 14 13 13 16 20 21 21 27 27 31 44 42 39 39 35 33 31 30 33 38 41 40 33 20 21 19 13 11 7 9
15 14 17 15 15 15 20 23 22 20 36 39 41 42 42 38 34 33 31 31 32 35 41 37 31 22 20 17 14 14 9 8
12 14 17 17 18 17 18 22 22 28 39 40 38 40 36 37 36 34 32 32 32 37 43 33 33 25 19 18 16 16 10 8
11 17 19 22 19 20 21 21 24 32 38 40 39 39 40 39 38 37 35 34 35 38 43 32 33 26 19 19 19 15 12 13
12 17 20 20 19 21 21 22 26 31 33 36 42 43 39 39 38 38 37 38 37 37 36 32 29 25 21 20 19 16 15 13
13 21 26 25 27 27 25 25 28 33 36 41 44 43 40 39 38 38 38 40 36 34 31 30 28 23 29 21 18 16 15 15
14 22 27 30 28 29 30 28 27 29 38 46 45 44 41 40 39 40 39 39 38 34 35 35 31 26 29 28 22 18 20 20
17 18 26 29 29 28 29 29 32 29 40 49 51 42 41 40 41 39 41 39 40 36 39 34 35 32 26 24 14 11 26 25
17 17 24 27 27 28 27 30 31 33 34 42 49 42 42 40 37 38 42 39 38 37 38 35 33 35 31 27 22 17 15 15
19 17 22 25 24 22 22 22 22 21 30 30 43 42 42 36 33 39 36 39 39 40 39 35 33 35 38 25 29 32 20 18
22 19 22 25 26 26 22 25 22 27 31 35 42 42 33 34 36 41 39 35 28 31 26 35 34 37 28 26 36 34 31 25
25 22 22 25 27 26 27 25 27 28 31 35 42 51 44 35 32 34 36 37 31 28 36 38 37 38 34 34 36 37 35 32
26 24 21 24 27 26 29 30 29 30 36 41 44 49 51 44 41 37 34 33 31 36 41 38 35 39 34 33 33 38 37 36

GFSFLT2_850_spd_069.txt.gz
Wind_Speed
11 16 17 19 18 19 26 26 30 31 28 26 29 25 27 29 29 28 27 25 29 33 31 29 27 24 21 19 15 14 15 16
7 16 21 20 18 17 21 26 16 32 20 20 27 25 23 24 23 26 25 27 33 33 32 29 26 22 18 18 14 11 9 15
7 11 18 22 21 18 22 25 27 28 31 25 29 25 22 23 26 25 24 28 35 34 32 29 23 19 19 17 13 9 10 15
11 12 14 21 21 23 22 24 24 28 31 31 32 23 24 29 25 24 24 34 37 36 32 27 24 23 21 15 10 7 12 16
12 13 15 17 22 23 23 23 23 26 33 29 29 23 32 26 26 24 28 39 39 36 31 27 24 23 21 15 9 11 15 16
13 14 15 15 17 21 21 22 22 25 34 33 30 36 29 28 29 28 32 39 40 37 32 27 23 22 18 15 13 11 12 16
11 14 15 13 15 17 18 20 23 27 31 39 34 39 36 38 37 32 34 40 40 39 32 28 27 24 19 16 14 9 9 16
11 11 13 12 14 16 18 20 22 24 29 30 35 35 40 41 40 36 36 40 41 41 36 31 29 24 20 19 14 10 8 14
10 13 13 14 13 14 16 19 20 24 27 32 33 34 41 43 40 37 38 39 39 41 38 32 28 22 20 20 16 12 8 11
11 14 16 16 16 15 16 20 20 22 25 32 38 41 35 42 39 37 37 37 37 41 40 34 28 21 22 22 18 14 11 10
12 14 17 18 15 16 16 19 19 20 19 34 35 45 44 43 40 38 38 38 37 42 44 37 29 25 24 20 18 16 11 10
12 14 17 17 16 16 16 18 18 18 24 23 27 36 38 38 37 36 36 36 40 43 45 39 31 26 23 20 17 16 12 11
14 15 18 19 19 20 20 22 20 22 25 31 31 29 34 34 35 35 36 38 39 41 46 40 30 26 24 19 20 18 15 14
16 16 19 23 20 21 23 23 23 23 25 33 34 33 38 36 36 34 36 36 37 40 47 41 33 28 26 26 21 19 19 19
19 17 20 23 24 26 24 22 21 24 29 32 36 35 37 37 35 36 38 38 40 40 46 42 38 32 29 25 16 9 18 21
20 18 22 24 26 28 29 29 29 28 29 33 39 38 39 37 33 36 39 40 41 40 40 38 37 37 33 33 24 16 12 14
23 20 21 23 26 30 30 29 31 32 34 32 36 45 42 41 39 36 39 41 44 40 37 38 37 37 36 34 24 22 23 18
26 23 21 23 24 27 28 28 28 28 27 32 32 37 46 41 38 36 37 42 43 42 42 39 40 38 36 33 33 31 26 23
29 26 23 23 24 24 23 19 21 22 22 26 28 32 44 40 40 39 35 37 42 39 41 42 43 40 38 38 35 30 24 36
31 27 24 22 22 21 19 19 20 21 21 23 26 29 33 41 42 40 35 37 44 42 43 40 40 37 39 35 37 36 34 36

GFSFLT2_850_spd_072.txt.gz
Wind_Speed
8 12 17 16 16 20 23 24 23 24 26 26 29 25 26 21 20 24 27 28 27 27 28 28 25 24 22 19 17 16 16 17
8 10 17 18 17 18 22 25 27 26 24 25 21 24 25 24 25 27 27 27 27 29 30 28 26 23 20 17 15 15 14 16
9 9 17 17 14 15 19 22 24 25 28 32 26 32 23 27 26 24 27 26 28 31 30 28 25 22 19 17 15 12 12 14
10 10 13 16 16 18 18 18 20 20 35 29 26 24 26 30 28 23 25 24 31 30 29 27 24 21 20 17 12 11 11 16
10 12 14 16 19 20 23 22 23 27 33 31 40 32 28 27 27 26 25 25 33 33 31 27 24 21 21 17 11 11 11 16
12 12 15 16 17 21 22 24 25 23 24 34 36 37 34 31 33 30 27 30 37 37 33 28 23 22 19 15 9 11 13 15
12 12 15 15 15 18 21 23 22 21 25 30 40 36 36 29 36 31 30 33 40 37 31 27 24 23 20 14 11 10 13 15
13 13 13 14 13 16 19 19 20 20 25 32 36 36 32 40 36 33 32 38 40 36 32 28 25 25 21 16 13 9 11 14
15 14 12 11 12 15 17 19 20 22 30 33 36 36 34 34 34 35 34 41 40 35 31 29 27 26 20 18 13 10 9 14
15 14 13 13 16 14 15 18 20 21 24 30 36 37 36 36 37 37 35 42 41 37 33 30 29 24 22 19 15 11 10 11
17 15 15 16 16 17 16 16 17 18 22 26 30 35 38 37 41 38 34 40 41 38 34 32 29 26 20 19 17 13 11 10
18 15 16 17 17 15 16 15 17 17 16 21 27 37 36 40 35 36 34 40 42 40 38 34 31 25 22 22 18 14 13 10
20 18 17 19 20 20 19 15 16 15 11 11 25 43 43 34 34 36 36 42 44 43 40 36 29 26 25 24 21 18 16 14
23 19 17 20 20 19 19 18 17 14 14 16 20 20 27 25 30 33 36 37 40 42 42 39 33 29 30 26 21 20 20 18
25 20 17 19 21 19 18 18 17 15 16 22 24 28 28 32 31 33 33 37 40 43 46 46 42 33 30 22 14 10 22 20
26 21 18 18 23 20 19 18 20 20 20 21 25 31 27 33 35 37 31 34 35 40 43 43 41 37 31 30 24 14 17 13
28 22 18 19 22 22 20 21 18 18 19 21 27 28 30 27 33 36 36 36 37 37 39 45 39 38 36 31 27 23 18 16
30 25 19 18 21 23 24 22 23 22 21 22 25 26 30 31 28 38 33 34 37 37 35 40 42 37 35 34 33 30 25 21
32 26 20 18 19 21 23 23 24 23 23 25 23 24 28 33 35 34 32 31 36 37 39 36 39 40 37 36 35 33 30 26
32 27 21 17 16 17 19 19 19 18 16 17 20 22 28 24 37 36 34 33 35 41 39 40 39 38 36 41 40 38 36 30

GFSFLT2_850_spd_075.txt.gz
Wind_Speed
12 12 13 15 17 19 21 22 22 23 24 24 27 23 22 23 24 21 21 24 25 26 26 25 22 23 22 20 18 17 16 16
13 13 15 17 16 16 20 21 22 24 24 25 21 27 20 18 19 20 23 25 26 27 26 25 24 22 21 18 17 14 14 14
13 13 13 17 18 18 18 20 23 24 25 27 27 25 30 26 22 21 22 22 27 28 27 25 24 22 20 17 15 15 13 13
13 13 11 16 20 18 17 19 22 25 25 23 29 26 21 24 31 27 27 25 29 28 28 27 26 24 20 16 14 13 13 13
14 13 11 16 19 19 19 18 18 22 24 29 29 30 21 19 26 26 28 28 28 28 29 29 28 25 22 19 14 13 12 15
16 14 13 17 18 20 20 20 21 19 22 28 37 29 22 26 28 31 30 31 31 32 32 30 26 21 20 17 14 13 14 16
16 14 14 17 19 20 22 22 21 23 23 30 28 30 29 31 31 35 34 31 34 36 33 29 25 21 20 14 11 12 14 17
18 15 16 16 18 20 21 24 22 24 26 27 29 36 37 33 32 38 34 31 33 35 33 29 25 23 20 15 13 11 16 19
19 17 16 14 15 16 18 20 23 23 23 22 27 34 42 36 37 35 35 31 32 35 33 28 25 25 21 17 14 11 17 17
19 18 16 14 14 14 15 18 20 21 19 21 28 33 42 38 38 37 36 32 33 35 32 28 27 26 22 18 16 12 14 15
21 19 17 14 14 15 15 17 17 21 25 26 42 44 37 34 39 40 37 32 37 38 33 30 30 28 23 21 18 15 13 12
22 20 18 16 16 17 16 17 16 17 18 17 24 35 42 39 39 38 36 37 40 38 34 30 29 28 24 21 19 17 14 12
26 23 20 18 19 20 19 18 16 17 18 17 14 28 40 40 38 32 33 36 39 41 35 32 31 28 24 23 20 18 16 14
29 25 21 20 19 21 21 19 15 18 15 12 17 21 33 38 37 36 36 37 40 42 38 36 33 31 25 21 14 15 19 17
33 26 22 19 19 20 18 16 16 17 14 15 10 15 32 32 32 34 35 38 40 44 42 42 37 34 31 17 11 10 19 21
33 27 22 19 21 22 19 19 19 18 18 18 16 16 19 32 24 25 30 33 36 40 41 41 40 36 33 32 23 16 13 12
35 28 23 19 20 22 19 17 17 17 16 18 18 22 22 26 29 32 29 31 34 38 40 43 41 42 39 34 26 21 17 16
34 29 24 19 18 21 19 17 18 15 17 18 19 19 22 26 30 35 35 33 33 33 35 39 42 42 38 37 35 30 24 22
35 31 26 20 18 21 20 17 16 16 15 14 17 18 22 27 26 33 38 37 34 35 37 36 41 43 42 38 36 35 30 26
37 34 27 20 17 17 20 19 19 18 17 18 20 21 20 21 28 24 25 38 36 35 36 36 37 40 41 38 36 35 33 34

GFSFLT2_850_spd_078.txt.gz
Wind_Speed
16 16 13 13 14 18 21 21 21 21 21 22 25 22 28 30 27 24 21 21 23 21 20 22 24 22 20 21 20 17 12 10
19 16 14 13 15 16 19 21 20 20 21 22 21 28 32 27 21 23 20 22 21 21 21 23 24 23 21 20 18 15 11 10
20 17 15 13 14 15 17 20 21 21 23 23 23 24 27 18 19 26 22 17 20 21 23 24 23 23 20 18 15 11 11 10
20 17 15 13 17 19 17 17 21 23 26 25 24 24 30 26 27 29 25 25 21 21 23 23 23 22 20 17 12 12 11 11
19 17 15 14 19 19 17 16 19 24 25 24 24 26 28 28 27 27 26 27 23 22 24 24 22 20 18 15 13 13 11 11
20 18 14 15 17 20 21 20 17 21 22 25 26 29 29 29 28 30 29 30 30 28 29 26 22 19 18 16 14 11 10 11
21 18 16 16 17 21 22 22 22 21 21 21 24 31 30 26 26 29 27 33 32 31 27 27 22 18 17 15 13 12 13 12
21 20 18 17 18 21 21 22 23 23 22 21 25 33 36 28 28 25 28 31 33 28 27 25 19 18 17 15 13 12 13 13
25 21 19 18 17 20 21 21 23 24 22 22 25 28 32 32 32 26 30 32 33 28 25 23 21 19 17 15 12 13 14 15
25 22 21 18 17 19 18 17 19 23 24 24 28 28 32 34 36 32 33 35 34 29 26 22 21 19 18 15 13 12 14 15
26 23 22 18 17 18 17 17 20 23 24 24 22 26 33 33 37 34 33 35 35 28 24 23 21 20 18 15 14 13 13 14
26 24 23 19 18 19 17 18 19 19 22 21 25 22 29 35 38 40 39 33 33 29 27 24 22 21 19 17 14 13 13 14
27 27 25 22 20 20 20 19 18 18 18 21 19 25 32 32 40 41 38 38 37 35 27 26 23 23 20 16 14 12 13 12
29 29 27 23 21 19 19 19 16 16 17 18 20 18 25 43 38 38 39 42 36 38 32 27 25 25 24 20 15 11 13 15
30 29 26 24 18 17 17 17 19 18 20 18 17 21 22 31 37 37 38 40 38 42 37 31 28 27 25 24 15 12 16 16
27 25 26 22 20 17 19 20 21 18 18 17 16 14 12 23 42 41 37 36 38 36 33 35 30 29 27 25 19 12 21 12
27 26 26 22 20 17 16 18 18 17 19 17 16 12 8 27 38 35 32 38 36 34 34 34 31 27 26 27 21 15 16 15
28 28 27 24 20 18 20 19 17 14 19 19 17 17 14 16 24 21 30 34 35 37 37 40 37 29 30 29 24 22 19 18
32 29 28 26 21 18 20 17 18 16 14 17 18 17 20 22 25 29 31 32 33 32 34 37 40 36 31 31 28 24 20 17
33 29 28 26 21 20 21 19 18 17 16 15 15 18 19 19 22 27 31 33 32 32 34 34 35 38 37 34 29 33 32 23

GFSFLT2_850_spd_081.txt.gz
Wind_Speed
16 16 15 12 12 15 17 18 17 17 16 19 19 22 24 23 27 24 23 22 22 20 19 18 20 20 18 20 23 17 11 9
18 17 15 14 14 15 17 18 18 18 17 18 21 21 21 23 15 14 25 19 19 20 17 19 22 22 19 20 21 16 12 9
20 18 15 14 13 12 15 18 20 20 19 20 21 22 26 26 24 24 20 16 16 16 16 20 23 22 20 19 18 12 8 12
18 19 17 14 11 14 12 14 20 22 19 21 22 23 22 28 21 17 18 20 20 14 16 20 23 23 22 18 15 12 11 10
18 18 17 16 12 15 11 13 14 18 19 20 22 22 21 21 27 22 28 29 27 28 23 21 24 23 22 20 11 12 11 11
18 16 15 14 13 16 13 14 16 16 21 20 21 22 23 24 23 27 31 31 28 29 24 25 24 21 20 18 14 14 11 10
21 20 18 16 15 15 19 15 13 16 18 21 20 21 24 28 26 29 30 29 30 32 28 29 24 21 19 19 15 11 12 9
23 22 21 18 16 18 20 21 20 22 18 18 21 19 22 26 28 30 32 31 28 32 32 31 25 23 21 17 16 13 13 10
25 22 20 17 17 17 21 22 22 21 22 21 22 21 21 25 26 28 29 26 30 32 30 27 24 22 20 19 15 13 13 13
26 23 22 19 15 18 18 21 21 23 21 22 21 21 24 28 27 26 26 19 27 30 28 27 26 22 22 17 14 13 14 15
28 25 22 21 19 18 16 18 18 19 23 22 21 21 22 25 28 29 29 22 29 33 27 26 24 24 24 17 16 13 14 14
27 23 21 21 20 17 16 18 19 19 21 21 21 21 23 27 28 34 31 25 30 36 29 24 24 24 21 19 18 15 13 14
28 25 24 22 20 19 18 21 17 19 20 20 23 21 22 24 32 31 33 33 31 38 30 27 27 26 23 21 18 17 17 14
27 26 26 23 20 17 17 19 14 16 17 16 18 21 20 18 35 31 32 34 36 36 34 29 27 28 30 21 16 15 16 19
28 26 25 24 19 17 16 13 17 16 16 15 17 17 16 19 22 28 33 33 38 37 32 32 30 27 28 24 14 10 17 17
27 26 25 23 22 17 16 18 18 15 14 15 18 18 18 20 25 42 41 38 40 43 38 34 31 32 28 26 17 11 22 12
28 26 24 23 23 17 17 15 15 13 12 15 17 18 15 15 19 39 37 37 37 42 42 36 30 30 30 25 24 18 12 18
28 28 27 24 23 19 17 17 16 15 14 17 17 16 12 10 17 33 30 37 35 35 38 36 32 27 31 27 22 20 14 15
29 29 28 26 23 19 17 16 16 14 13 16 15 15 14 8 14 29 31 36 32 35 35 32 32 30 28 28 28 22 18 17
29 30 29 27 23 19 17 15 15 14 12 11 14 16 14 15 15 18 21 27 33 33 35 34 32 33 33 30 28 30 25 20

GFSFLT2_850_spd_084.txt.gz
Wind_Speed
16 17 15 13 10 10 12 13 13 14 13 14 15 17 18 22 25 24 17 14 22 19 18 15 17 19 21 24 20 17 15 15
19 18 17 14 11 11 12 13 14 14 15 15 16 15 18 21 21 21 16 19 20 18 16 15 18 20 22 24 17 13 15 13
22 19 17 15 12 12 12 13 15 16 17 17 17 17 18 19 20 19 18 16 20 17 17 15 17 20 20 23 18 9 15 13
23 21 19 15 13 12 10 12 15 17 17 18 18 19 19 22 21 19 23 9 18 16 16 14 19 22 22 22 22 15 11 19
20 19 20 18 14 13 9 7 9 13 17 17 19 20 22 21 21 21 18 18 27 23 17 17 21 23 21 22 20 15 13 15
23 23 18 20 16 16 10 7 10 11 13 19 19 21 20 21 21 27 20 25 27 28 22 22 23 24 23 22 14 19 12 11
27 25 19 18 19 16 12 14 12 13 17 18 21 20 21 21 22 27 26 26 30 33 27 25 27 25 26 23 19 13 14 12
31 26 21 23 23 18 15 22 12 15 19 16 20 20 21 22 24 23 25 27 28 28 24 25 27 27 26 24 23 15 9 8
33 29 30 31 22 17 15 18 25 23 21 17 17 19 20 21 25 25 26 27 26 25 26 29 28 29 27 25 22 21 17 8
33 32 34 28 20 17 17 16 18 23 20 18 19 21 21 21 24 25 27 27 23 25 27 31 33 30 29 26 21 20 19 13
35 34 33 25 18 21 16 16 17 20 21 19 20 21 21 23 23 24 25 26 27 25 26 29 32 31 30 25 19 15 20 16
37 35 33 27 25 24 18 16 18 20 19 19 19 23 21 22 24 25 25 24 22 19 24 29 29 29 30 24 18 19 18 18
35 36 35 27 31 24 21 19 19 18 20 20 21 21 20 21 23 25 24 28 25 19 30 31 31 31 31 25 21 20 16 18
34 35 31 31 31 22 20 16 13 16 17 19 20 21 21 21 22 25 25 30 27 23 27 34 26 30 34 30 21 20 20 19
35 34 30 32 24 21 21 19 17 15 15 14 17 18 22 21 24 23 27 30 31 28 38 36 34 29 33 32 18 10 26 21
33 32 31 31 26 24 24 20 22 19 16 15 16 17 17 17 21 21 25 25 30 32 40 36 33 31 33 28 24 21 23 12
33 34 31 32 28 26 24 18 15 12 11 15 16 17 18 17 16 21 25 26 27 31 42 42 39 33 33 25 20 19 19 19
35 35 30 28 30 25 18 12 16 14 17 19 20 20 18 17 16 20 25 32 30 27 41 40 39 34 33 30 28 24 15 19
36 33 30 29 27 25 19 19 19 14 17 18 18 17 18 15 14 13 16 35 35 29 43 40 39 34 32 30 26 25 21 14
36 32 30 30 26 26 20 19 17 17 16 14 16 13 15 12 10 10 22 24 25 30 32 44 38 31 29 30 28 24 23 21

GFSFLT2_850_spd_087.txt.gz
Wind_Speed
17 18 16 15 12 10 9 9 10 11 12 14 15 15 18 18 21 21 22 15 18 17 20 18 19 22 24 25 21 20 20 20
18 20 19 16 13 11 9 9 11 12 13 14 16 17 17 19 23 22 21 16 24 21 23 20 21 23 26 25 21 20 17 16
22 19 20 18 16 14 11 10 12 13 14 15 17 17 16 19 20 20 18 14 17 21 22 21 21 23 26 24 19 19 17 17
25 23 20 20 18 15 11 11 12 12 14 15 17 16 17 18 17 16 14 12 11 22 24 21 23 25 26 23 19 18 17 15
27 25 21 20 20 16 11 9 11 12 13 15 17 17 18 19 16 18 20 20 17 18 22 21 23 26 26 25 20 14 21 15
30 27 23 21 21 18 12 10 10 8 8 14 18 17 18 19 18 21 24 23 19 24 20 23 25 26 25 26 22 14 18 18
33 30 24 21 24 21 14 13 11 7 9 12 16 16 15 17 19 21 25 23 22 31 25 23 26 27 26 27 24 15 17 16
37 34 27 23 24 25 19 18 14 14 14 15 16 16 16 18 20 23 27 26 22 27 28 25 22 25 28 29 25 20 16 17
37 36 31 27 25 27 20 22 20 20 18 17 16 15 17 19 21 24 27 29 25 26 28 25 24 26 29 31 24 18 17 14
36 41 37 32 26 25 23 29 24 22 21 19 17 15 16 19 21 23 25 25 26 26 27 25 28 28 30 29 21 20 17 12
40 42 41 36 26 24 25 27 30 27 22 22 21 18 21 22 22 23 25 24 24 24 26 28 29 29 32 32 27 23 18 20
42 44 43 34 28 28 26 23 22 25 23 22 17 19 22 24 25 23 26 24 26 26 26 26 29 33 37 28 30 25 22 16
41 48 44 36 32 32 29 27 25 22 20 19 18 21 24 24 26 25 24 26 27 28 25 26 24 41 35 28 21 18 23 18
42 48 45 38 33 30 28 27 23 17 18 19 20 23 26 24 25 26 27 24 27 29 24 22 29 37 33 33 24 25 21 20
45 48 43 37 31 25 27 22 17 18 21 21 20 22 24 24 25 25 23 23 26 29 25 28 35 40 37 33 27 16 28 23
44 43 39 33 29 29 32 29 27 22 17 14 17 20 21 24 23 24 23 22 25 30 29 40 42 44 36 30 28 29 32 21
40 39 37 31 28 30 31 28 23 19 16 15 17 18 18 22 23 23 26 24 30 31 36 32 40 44 39 32 29 18 31 22
41 37 33 31 28 30 29 27 25 21 19 16 19 19 21 20 20 20 23 25 27 30 33 34 44 40 37 35 32 22 23 25
43 41 36 32 30 31 28 22 22 17 18 19 20 22 22 21 19 20 22 24 29 32 37 46 45 43 42 38 32 22 21 22
43 38 36 33 30 31 26 21 21 18 15 18 17 18 19 19 18 20 22 23 33 32 29 43 44 40 40 36 30 31 22 21

GFSFLT2_850_spd_090.txt.gz
Wind_Speed
20 20 19 17 15 13 11 11 11 12 15 17 18 19 19 18 19 20 20 20 20 18 18 18 20 22 25 25 23 21 22 20
21 21 20 19 18 15 13 12 12 12 15 17 18 20 20 21 20 22 22 20 18 23 24 30 26 25 27 25 23 22 20 20
23 22 23 21 19 17 15 13 13 13 15 15 17 19 20 19 20 21 23 16 15 21 25 32 25 26 25 25 22 22 22 19
23 23 24 24 22 19 17 15 14 13 15 16 17 18 19 18 18 17 18 16 14 19 26 19 29 26 27 24 22 22 21 20
22 22 23 24 24 22 19 17 15 15 16 16 17 18 18 19 18 20 22 20 20 20 16 17 32 28 29 25 24 25 21 21
25 24 24 23 24 24 20 17 15 16 16 18 18 18 18 18 18 19 21 24 24 16 19 23 30 29 30 27 25 24 23 20
30 29 29 27 26 28 24 19 17 14 15 17 16 15 16 17 19 20 22 24 24 18 20 24 22 28 30 29 27 23 19 23
29 33 33 30 25 27 27 22 19 18 17 15 13 14 15 15 18 20 22 25 23 19 25 27 25 30 31 32 30 25 20 23
28 29 35 32 29 27 29 26 24 22 20 17 14 15 16 17 18 19 22 25 25 22 28 26 24 28 31 29 30 27 23 20
32 30 34 34 32 30 30 30 26 24 22 20 16 17 17 17 19 19 22 25 26 25 28 29 27 27 30 32 30 26 22 23
39 34 35 38 35 34 31 31 28 26 24 22 20 20 19 19 19 21 22 25 27 28 27 32 32 29 28 30 33 28 26 25
42 37 38 41 37 35 30 31 30 28 26 24 23 22 21 22 22 20 21 26 27 27 29 34 33 30 31 30 31 31 27 23
43 37 41 42 40 36 36 36 35 31 29 27 25 23 22 24 25 23 23 26 27 27 31 31 30 29 26 33 31 31 26 20
43 42 37 42 46 45 39 35 34 31 32 30 27 24 24 24 25 25 24 25 26 27 31 30 31 31 30 40 24 31 29 21
39 43 38 48 49 45 37 31 30 28 28 30 29 28 26 26 24 25 26 27 29 28 33 32 34 34 32 28 20 14 30 24
36 42 43 49 52 47 38 35 36 33 29 29 27 28 28 27 27 25 25 27 29 29 31 35 33 31 39 41 27 30 27 18
38 45 45 49 49 45 38 34 35 29 24 24 25 28 26 24 26 26 26 26 27 28 31 32 30 41 44 40 29 29 30 26
41 47 45 50 46 42 36 34 31 26 24 24 22 22 23 23 24 25 25 25 27 27 29 33 35 42 43 43 36 30 32 25
33 42 44 41 42 36 33 31 28 24 23 21 21 22 21 22 23 24 25 25 28 27 29 30 37 46 47 40 40 29 28 27
27 32 39 42 39 35 29 25 23 21 21 20 18 17 19 21 23 24 25 24 25 27 31 34 40 44 47 43 37 32 24 24

GFSFLT2_850_spd_093.txt.gz
Wind_Speed
27 27 24 21 19 17 15 15 16 16 17 19 20 21 20 20 20 20 19 18 19 20 19 19 19 16 17 17 21 21 22 23
29 27 25 22 20 18 15 14 14 15 17 18 20 21 21 21 21 20 21 18 19 19 17 21 22 21 20 21 23 22 21 22
28 27 27 25 22 20 18 15 15 15 16 18 20 22 22 23 21 21 20 18 17 20 21 20 23 26 24 23 25 25 25 21
27 26 26 25 24 22 19 18 16 16 16 18 21 22 21 21 20 21 19 18 19 20 20 23 25 23 27 25 27 27 24 21
25 25 25 26 26 25 23 20 18 16 16 18 19 20 20 21 21 21 20 19 21 21 22 25 28 26 30 30 29 27 25 23
26 25 25 24 25 26 25 23 21 19 19 20 22 21 22 22 21 21 21 21 24 23 20 23 28 29 33 30 29 27 25 24
31 29 28 27 27 27 28 26 24 20 20 22 22 22 22 22 21 20 21 21 23 23 19 22 22 31 31 32 29 27 25 24
39 36 32 31 28 25 26 29 27 22 22 22 20 22 22 22 21 21 22 22 23 24 21 18 27 30 30 30 28 28 24 25
44 43 40 38 31 30 27 30 30 27 24 22 19 22 21 20 20 20 22 23 25 24 20 21 27 26 24 30 29 26 24 26
36 41 45 38 33 32 30 29 31 30 27 24 21 22 21 21 21 20 22 23 25 25 22 27 28 25 28 32 31 29 25 23
36 38 43 40 36 33 31 30 33 32 29 26 24 23 22 21 21 20 21 24 26 25 25 28 29 26 26 29 32 31 29 26
30 38 43 41 38 37 33 31 34 33 32 29 25 25 23 22 21 20 23 26 27 27 27 28 31 28 27 28 31 32 31 29
28 32 42 45 44 42 38 36 38 35 34 30 28 27 25 24 23 22 23 28 28 27 27 27 29 31 29 26 28 34 33 31
30 28 35 46 46 45 42 40 41 37 36 33 31 28 26 25 25 25 25 25 27 28 28 29 31 35 31 25 20 19 30 37
31 28 33 40 47 49 45 42 34 33 34 35 33 30 28 26 23 25 28 28 28 26 28 30 35 38 36 24 10 10 28 33
24 28 28 42 50 48 48 47 39 43 47 39 34 32 30 27 23 24 27 29 28 26 26 29 34 35 35 38 29 22 27 22
19 27 29 43 44 47 49 49 42 41 40 39 36 33 30 29 26 26 28 28 27 27 26 31 34 36 37 38 34 27 35 35
17 25 32 39 50 51 51 50 42 38 39 37 36 33 30 29 27 27 30 28 28 26 28 30 32 36 36 37 36 38 37 35
16 25 31 40 48 50 48 47 41 33 34 35 34 31 30 28 27 26 26 25 27 27 26 27 29 33 37 37 44 45 40 30
14 24 28 36 41 40 42 38 35 31 31 32 30 25 21 20 22 24 23 26 25 26 27 30 30 33 34 40 50 43 33 33

GFSFLT2_850_spd_096.txt.gz
Wind_Speed
30 29 28 26 24 22 21 20 19 19 19 19 20 20 19 19 19 19 19 18 18 19 17 18 19 16 13 14 13 11 16 19
31 30 29 27 26 23 21 19 18 18 19 19 20 21 20 20 20 21 20 19 18 18 17 18 21 21 18 19 16 18 14 21
31 30 29 28 26 24 23 20 18 18 18 19 20 21 22 22 23 22 21 19 18 19 18 20 22 23 20 27 23 23 23 25
29 29 29 29 28 26 24 22 20 18 18 19 20 21 22 23 23 23 22 19 19 19 19 21 22 23 24 29 24 25 26 26
28 29 28 28 27 27 26 24 22 19 18 19 19 21 22 23 24 25 23 22 22 21 21 24 25 22 25 27 26 28 28 27
27 29 29 28 28 28 27 25 24 22 20 19 20 21 22 23 24 25 24 23 24 23 23 25 25 25 26 25 30 31 29 28
32 32 32 31 31 31 30 29 27 25 23 21 21 21 22 22 24 24 23 25 25 24 25 24 25 26 28 29 30 32 29 28
31 39 36 34 33 34 32 31 29 28 26 25 22 21 21 22 25 25 25 25 24 24 24 23 21 23 25 31 32 31 28 28
34 33 39 42 37 36 34 31 30 31 31 28 25 22 22 22 24 25 24 25 24 24 23 21 19 21 22 26 25 30 26 29
30 35 39 42 46 41 37 33 30 32 33 30 28 24 23 23 24 24 24 25 23 24 24 22 20 21 25 26 28 27 27 27
27 28 37 41 42 43 41 35 34 33 33 32 29 26 24 23 24 23 23 24 24 25 25 23 23 26 26 26 27 32 26 25
24 27 30 39 40 47 43 39 35 35 34 36 32 28 26 24 24 23 23 24 25 25 26 25 26 29 28 26 26 25 27 28
26 24 28 33 43 48 47 46 37 39 39 37 34 31 28 27 25 24 25 25 26 25 25 26 30 29 25 23 25 29 32 32
26 24 27 31 39 43 48 43 41 42 41 38 34 33 31 29 27 26 26 25 27 26 26 27 31 32 30 27 20 24 29 33
24 23 24 32 35 43 45 48 45 42 39 35 36 34 33 31 28 26 26 27 27 27 27 30 32 33 35 24 11 11 22 24
22 25 27 31 37 41 46 50 48 46 41 32 28 32 35 32 30 27 26 27 27 26 28 31 30 34 35 36 26 16 13 11
21 23 28 33 36 39 44 46 47 48 40 35 25 45 36 34 33 28 27 27 28 26 26 29 31 33 33 38 36 27 19 19
19 20 22 30 34 36 40 44 49 48 41 45 34 41 42 36 33 30 27 27 26 26 27 28 29 33 32 34 38 37 35 27
16 12 15 24 31 35 36 44 47 47 46 31 44 46 40 39 34 33 29 27 26 26 26 25 27 30 30 34 37 36 37 33
18 11 12 21 27 31 33 41 44 40 44 43 39 34 35 34 32 29 29 29 28 26 23 26 26 27 31 35 35 34 36 37

GFSFLT2_850_spd_102.txt.gz
Wind_Speed
26 30 29 27 27 26 25 23 22 20 20 20 20 19 20 21 21 21 18 17 16 16 15 16 18 18 18 17 16 16 14 15
27 28 30 30 29 29 27 24 22 21 21 20 20 20 20 21 22 22 20 18 18 17 16 16 19 18 18 16 16 15 16 15
25 30 31 31 30 30 28 26 24 23 22 22 21 21 22 23 24 24 23 21 19 17 17 18 18 19 19 18 19 18 19 17
22 30 32 31 32 31 30 28 27 26 26 25 25 23 20 20 23 25 24 22 21 19 18 18 18 20 21 21 22 18 20 19
13 20 28 31 32 32 31 30 27 27 26 24 25 21 20 22 19 25 25 25 22 21 21 21 22 19 19 21 21 21 17 18
10 12 18 26 30 31 31 32 33 33 31 30 29 27 21 20 21 20 23 21 21 19 19 20 20 21 19 20 21 16 18 18
10 13 14 18 23 28 31 34 34 34 34 33 32 31 30 22 21 21 23 20 23 21 22 22 22 22 21 23 23 19 20 20
12 14 17 19 24 25 27 33 36 37 36 36 34 34 29 30 29 27 22 23 25 24 25 22 23 22 22 25 26 21 19 24
13 15 18 20 25 29 28 31 33 35 37 37 36 36 35 32 31 31 30 25 27 24 25 25 23 22 24 26 27 27 26 27
17 16 17 20 24 26 27 29 32 31 34 37 37 37 37 34 33 31 30 29 29 27 27 26 25 24 22 24 26 28 31 31
22 22 22 21 23 25 28 31 37 34 34 35 35 37 39 38 34 33 30 29 31 29 29 26 25 25 22 25 24 23 24 26
20 24 27 27 27 25 26 28 37 35 39 43 36 38 41 39 35 35 31 30 31 29 30 27 26 25 26 24 20 24 22 21
21 23 26 28 26 21 26 30 34 40 38 38 42 41 41 39 36 36 33 32 31 29 28 27 26 26 20 19 23 23 22 22
21 22 24 25 24 23 24 29 30 33 34 37 48 44 42 39 38 37 35 33 31 29 29 28 28 26 26 24 17 23 23 23
23 24 23 26 26 25 27 27 30 30 32 39 48 46 44 43 37 36 36 33 31 27 27 28 29 28 29 19 10 11 20 24
26 28 28 29 27 23 24 28 34 35 33 41 44 46 48 42 37 38 38 33 29 27 26 26 29 31 31 32 17 14 12 11
28 29 28 28 28 27 26 30 34 34 30 34 40 44 49 46 41 32 41 27 26 25 27 29 30 32 35 35 34 20 16 10
28 28 28 26 25 25 28 30 34 34 32 34 35 42 49 43 40 41 39 38 39 33 29 31 32 32 34 35 35 28 24 22
32 30 29 26 22 22 26 31 36 37 32 32 34 40 44 45 42 44 43 44 36 44 36 34 32 34 34 38 36 37 29 30
33 31 30 26 21 20 23 23 31 35 33 32 33 36 39 40 40 35 47 44 36 45 36 37 30 33 34 35 35 35 35 36

GFSFLT2_850_spd_108.txt.gz
Wind_Speed
12 14 17 23 26 25 23 21 20 18 17 17 18 19 18 18 17 17 17 16 15 14 12 12 13 13 13 13 12 12 11 13
11 15 14 22 28 27 25 23 21 20 19 18 19 19 18 19 18 19 19 18 17 15 14 13 13 14 15 14 14 14 15 15
10 15 15 19 27 28 26 25 24 22 22 20 20 21 20 20 20 20 21 21 19 18 16 15 14 15 16 17 17 17 18 15
9 12 16 15 19 24 27 26 26 25 25 23 23 22 21 21 21 23 23 23 22 21 18 17 17 18 17 19 20 20 20 15
12 11 12 19 22 19 22 27 28 28 26 25 25 24 21 19 19 20 23 24 26 24 22 22 20 19 18 18 21 22 21 19
6 11 12 11 18 27 22 18 21 27 28 27 25 23 24 22 20 22 20 22 27 27 24 25 23 21 19 21 19 20 21 20
6 3 7 11 14 18 17 20 23 23 21 21 25 26 23 24 23 22 23 19 22 24 24 22 21 20 20 22 23 20 20 21
9 12 9 12 12 15 21 21 21 23 26 26 26 25 24 27 27 25 24 24 22 21 21 25 23 21 24 25 26 24 22 25
2 7 11 16 16 13 15 18 19 22 24 26 30 34 34 32 31 29 28 24 22 24 25 25 25 25 26 26 26 25 24 24
4 7 10 13 17 20 21 19 20 24 26 25 30 33 36 41 38 33 33 31 29 30 28 30 29 27 25 24 25 24 24 24
5 7 7 11 15 17 22 26 25 23 28 30 30 36 34 36 38 39 40 38 31 30 30 34 31 29 23 21 23 24 24 22
5 7 10 13 14 15 17 21 28 31 29 29 31 34 38 33 36 38 40 40 40 36 35 33 32 27 25 19 20 21 21 22
7 10 12 14 15 15 16 19 19 22 28 33 31 36 38 37 37 39 42 42 41 42 37 36 33 29 24 22 27 24 24 24
11 12 14 15 16 18 24 28 30 29 28 28 34 40 38 40 38 40 45 47 46 45 41 37 36 29 29 27 22 26 29 25
13 15 17 17 17 20 21 24 30 29 34 38 34 39 46 43 41 41 46 35 25 40 38 36 36 32 31 23 11 16 15 24
13 16 18 18 20 22 24 28 30 30 27 28 33 34 42 44 48 48 47 40 42 30 33 36 33 34 29 35 25 7 10 8
16 18 18 20 21 24 26 29 32 35 33 40 34 33 45 45 48 46 47 44 51 42 36 35 37 30 27 29 30 28 20 14
19 21 22 21 22 24 27 30 32 36 36 37 45 40 36 49 48 45 43 39 43 45 46 43 48 30 21 22 27 34 35 28
23 25 26 24 25 25 26 29 30 32 35 38 39 47 40 34 44 42 41 40 41 47 46 48 33 32 27 29 35 34 36 33
26 27 28 27 27 27 25 26 27 27 30 34 38 48 40 29 39 37 34 37 40 47 42 43 36 30 25 22 39 34 36 31

GFSFLT2_850_spd_111.txt.gz
Wind_Speed
10 11 12 16 25 24 24 22 19 18 18 18 18 19 19 18 16 15 14 14 13 13 11 11 11 12 12 10 9 8 8 7
12 14 15 16 22 26 26 24 22 20 20 19 19 19 19 19 18 17 17 16 16 15 13 13 13 14 13 11 11 11 11 9
14 11 14 15 19 26 27 27 24 23 22 21 21 21 21 21 21 20 20 20 19 18 16 15 15 16 15 15 15 13 13 11
9 8 11 13 15 25 29 28 26 26 25 24 23 23 22 22 22 21 22 22 21 20 19 18 19 18 18 17 17 15 15 12
8 6 6 8 13 18 24 28 27 27 27 26 25 24 24 24 24 24 24 24 25 25 24 23 22 20 20 19 18 18 16 15
4 3 5 7 5 19 20 23 25 28 29 28 27 26 26 26 26 25 26 26 28 27 27 26 24 22 22 22 20 18 17 18
11 8 7 8 7 18 19 16 19 23 27 29 29 29 28 29 28 26 24 24 24 26 29 29 26 25 24 23 22 20 16 17
7 6 5 6 11 12 15 21 23 23 23 24 27 28 28 28 30 29 27 25 27 23 26 29 28 23 20 20 21 21 19 18
5 3 8 9 8 15 17 15 17 22 26 27 28 28 27 28 28 31 31 28 27 27 24 24 26 23 23 21 22 26 24 22
3 11 11 14 13 14 15 17 20 21 21 26 29 30 31 31 32 33 33 33 32 29 28 28 27 27 27 27 25 25 24 24
4 9 14 15 16 16 20 21 20 21 24 24 26 29 33 33 38 37 36 38 40 38 36 33 33 35 31 28 25 25 22 23
7 11 14 16 16 18 19 20 25 31 28 25 25 30 34 34 36 39 43 44 39 41 42 40 37 38 32 28 24 20 20 24
7 10 11 12 12 13 16 21 24 26 28 36 34 28 30 38 40 41 40 52 50 44 45 43 39 38 32 26 26 25 23 23
8 10 12 13 14 15 16 19 22 25 30 31 32 34 35 34 43 45 43 40 49 51 49 43 40 40 35 30 21 24 25 28
12 15 16 16 17 19 20 21 22 25 25 28 36 38 37 35 37 46 48 46 45 46 46 40 39 29 31 26 11 13 23 31
15 16 16 17 19 20 21 24 27 28 30 30 30 36 46 42 37 38 49 48 44 44 46 40 35 41 29 35 27 13 14 10
16 16 16 17 18 19 21 24 26 29 32 36 34 34 40 43 38 32 45 51 48 50 47 47 39 46 42 43 43 21 16 15
19 21 21 21 20 20 21 24 25 29 31 34 37 35 35 42 44 32 38 48 48 51 49 45 48 53 46 52 48 47 37 24
23 24 23 24 23 22 23 23 25 28 28 30 35 36 35 35 41 38 34 41 44 44 47 46 48 46 48 49 44 37 38 38
23 26 26 27 25 23 23 23 25 27 26 27 30 31 33 35 34 41 37 34 37 37 46 47 49 47 47 39 36 33 31 35

GFSFLT2_850_spd_114.txt.gz
Wind_Speed
7 9 12 14 21 26 26 25 24 22 21 21 20 20 20 20 18 17 16 16 14 13 12 11 10 10 9 9 9 11 12 12
9 9 9 15 17 25 26 25 24 23 23 22 22 22 22 22 21 20 19 18 17 16 15 14 12 12 11 11 11 13 13 13
12 9 8 10 19 23 28 27 26 25 24 23 23 24 25 25 25 23 21 21 20 19 18 17 15 14 13 13 14 14 14 15
16 13 9 10 11 21 27 30 29 28 26 26 26 25 25 25 25 24 24 23 23 22 21 20 20 18 16 15 15 16 16 16
15 14 9 7 8 15 25 30 29 29 28 27 27 26 26 26 27 27 27 26 27 27 26 26 24 21 19 18 16 17 17 17
12 13 13 8 6 10 14 23 27 28 29 29 29 28 28 28 29 29 29 29 30 30 29 28 26 24 22 20 19 18 17 18
16 15 13 12 11 10 15 17 22 22 27 29 30 30 29 30 30 30 31 30 31 31 31 30 29 28 25 23 21 19 19 17
18 14 10 11 14 12 17 18 17 20 23 27 31 31 31 32 32 33 33 32 31 31 31 31 32 31 28 26 25 22 20 19
19 15 10 7 8 13 15 19 20 22 23 23 25 29 31 34 35 37 36 35 33 29 31 29 27 31 32 27 23 22 21 20
18 13 11 9 9 11 14 19 20 22 25 28 26 27 32 33 33 35 34 33 34 33 31 32 31 29 31 30 26 24 23 23
15 12 11 12 16 18 16 18 20 21 23 23 24 26 28 31 34 35 33 41 37 36 36 35 35 32 31 30 28 28 26 26
12 9 12 14 15 17 20 20 20 23 24 26 27 26 27 30 31 34 37 39 39 42 42 40 39 36 34 32 31 29 27 28
5 5 8 11 13 14 17 21 21 22 25 28 29 30 29 27 32 34 35 38 41 44 40 42 45 43 40 36 35 33 29 25
6 2 4 9 13 15 16 18 21 22 23 25 29 33 34 34 34 34 36 37 41 44 43 45 42 42 43 36 27 32 30 29
8 7 7 8 11 16 17 18 19 21 22 24 25 29 35 38 40 38 36 34 38 42 45 42 46 43 38 22 22 11 22 31
10 7 8 10 12 15 18 20 23 24 25 26 26 25 29 35 42 44 41 36 37 40 43 42 41 45 38 30 19 7 8 10
13 11 11 13 13 15 19 20 22 24 26 28 27 27 26 27 33 41 46 43 37 38 44 45 42 44 44 41 36 39 41 33
16 16 17 16 17 17 18 21 22 23 25 27 28 28 27 25 24 29 36 42 39 40 44 46 46 45 47 48 39 46 48 45
20 19 16 19 20 20 19 20 22 24 25 28 30 30 29 25 24 24 28 34 39 37 40 46 47 46 44 47 46 51 47 42
20 19 19 20 20 21 21 21 22 23 23 25 27 30 30 28 29 30 30 28 36 40 32 41 47 42 40 34 43 55 59 49

GFSFLT2_850_spd_117.txt.gz
Wind_Speed
4 4 7 12 15 22 25 25 24 23 22 22 22 22 22 22 20 18 17 16 15 15 14 13 12 11 11 11 12 13 13 12
7 6 7 8 14 19 27 27 26 25 24 24 23 23 23 23 22 20 19 18 18 17 16 15 14 13 13 12 13 14 15 15
11 9 8 7 10 16 22 27 27 26 26 25 25 25 25 25 25 23 22 21 20 20 19 17 16 15 14 14 15 15 16 16
12 12 11 10 10 10 18 25 28 27 27 27 27 27 27 27 26 25 24 24 23 22 21 20 20 19 17 17 17 17 17 17
13 13 14 11 11 10 11 21 28 28 27 27 28 29 28 28 28 29 28 27 26 26 25 25 25 22 20 19 17 18 18 19
14 14 15 14 11 10 11 10 21 27 27 27 28 28 28 29 30 31 30 29 29 29 28 28 27 25 23 22 20 20 19 20
21 20 19 18 16 14 11 12 11 17 23 26 27 28 29 30 31 31 31 31 31 30 30 30 30 29 27 25 23 22 21 22
26 26 24 21 19 18 16 16 16 17 20 21 26 29 30 31 31 32 32 32 32 32 32 31 32 32 31 29 27 25 25 25
28 27 24 21 20 20 18 17 19 22 21 22 25 28 32 32 32 34 34 33 34 32 32 31 31 33 34 33 31 29 29 28
30 26 23 20 17 16 16 14 16 19 23 28 28 28 26 28 32 36 37 37 34 34 34 33 31 33 34 33 35 33 30 30
28 25 21 18 15 14 15 16 17 19 19 19 21 24 26 29 27 28 33 35 35 33 38 36 30 36 36 35 33 35 32 31
24 22 20 17 16 16 15 15 17 19 21 22 22 23 24 26 25 27 30 31 31 35 46 45 37 43 38 35 37 33 33 34
13 12 10 7 9 11 12 15 14 14 18 21 24 28 30 31 31 30 30 33 30 29 33 35 40 43 41 36 42 34 33 35
8 7 4 1 4 7 8 12 16 16 15 17 20 23 26 30 34 35 33 31 31 30 31 32 37 39 36 35 31 35 42 38
8 7 5 3 4 7 9 10 13 17 17 17 18 21 24 28 30 34 38 37 35 32 29 30 35 36 37 32 13 15 29 39
9 9 8 7 6 8 11 13 16 16 18 20 21 21 21 22 26 29 33 37 38 37 34 34 33 35 36 38 39 29 10 13
12 12 10 8 8 10 13 14 15 18 20 21 21 22 20 20 21 23 27 30 34 37 37 36 37 40 38 33 35 41 40 28
14 14 14 12 12 12 12 15 17 18 20 22 23 23 23 19 20 20 20 23 27 31 34 38 38 40 44 41 40 41 39 35
19 20 18 18 17 16 15 16 17 18 19 22 23 24 24 23 22 22 22 22 25 27 30 37 35 38 43 44 45 45 43 42
19 20 19 18 18 18 17 17 16 17 18 20 22 23 24 24 25 25 25 25 27 29 29 34 37 36 40 43 44 44 45 47

GFSFLT2_850_spd_120.txt.gz
Wind_Speed
3 4 6 10 14 17 22 22 22 21 21 21 22 23 23 22 21 19 17 17 16 15 14 14 14 13 12 12 13 13 13 12
9 9 9 8 10 14 18 24 23 22 21 22 22 23 23 24 23 22 20 20 19 18 17 16 15 15 14 13 14 14 15 14
15 14 12 11 11 12 15 20 26 25 23 23 23 24 25 26 26 25 23 22 21 20 19 18 17 17 16 15 16 16 17 16
19 17 15 13 12 12 13 17 21 26 26 25 25 26 27 27 28 27 25 24 22 22 21 20 20 20 18 18 17 17 18 18
23 20 18 16 14 13 13 13 18 23 27 27 26 26 27 28 29 29 29 27 26 25 25 25 25 23 21 20 19 19 19 20
25 23 21 19 17 16 16 15 14 19 24 26 26 27 27 27 28 29 30 30 29 28 28 27 27 26 25 23 22 21 21 22
29 27 24 23 23 20 18 14 12 12 18 23 23 24 24 25 27 28 29 30 31 30 30 30 30 29 28 27 26 24 23 23
31 31 28 27 26 24 21 18 16 14 16 19 23 23 23 24 25 27 29 30 30 30 32 31 31 31 31 30 28 27 26 26
25 29 30 28 27 25 23 19 16 17 19 21 25 27 26 27 27 28 29 29 27 30 33 32 32 31 32 32 31 30 30 29
23 24 24 27 25 22 21 19 17 18 18 20 22 24 27 31 30 33 33 34 31 33 32 33 33 27 29 32 33 32 33 33
20 19 18 18 21 19 16 15 15 16 17 18 20 21 23 25 32 31 25 22 24 35 35 36 36 34 28 29 32 32 32 31
15 15 14 13 14 15 15 15 15 17 19 21 21 21 22 23 22 22 23 26 31 29 33 36 37 31 40 52 38 34 30 33
5 7 7 7 10 11 12 12 13 14 15 17 19 20 22 24 27 27 26 25 24 23 26 29 32 40 39 36 45 50 41 33
2 1 2 2 3 5 7 9 10 9 9 12 15 17 20 22 24 27 29 30 28 26 25 22 24 22 37 37 31 43 58 55
11 8 4 3 1 2 4 6 7 8 10 11 11 14 17 20 22 24 26 29 29 29 28 27 27 26 25 25 9 14 26 42
14 14 15 16 10 8 4 4 6 8 11 15 15 13 15 16 19 21 23 25 26 27 27 30 29 30 31 32 33 27 15 14
16 16 9 19 20 16 13 11 10 11 12 13 16 15 15 15 15 17 18 20 21 24 26 27 30 33 33 34 34 35 38 31
18 17 14 12 18 19 18 17 13 14 15 15 16 17 15 15 15 14 15 16 17 19 21 24 27 32 36 34 37 35 36 36
21 21 22 19 18 17 17 16 15 16 17 18 19 19 17 16 16 15 15 15 16 17 20 23 23 28 35 38 41 41 40 37
13 12 15 19 20 19 18 16 15 16 17 17 19 20 19 18 18 17 17 16 17 18 21 24 25 26 28 35 39 41 42 42

GFSFLT2_850_spd_123.txt.gz
Wind_Speed
4 6 7 10 13 17 20 22 21 21 20 20 20 21 21 20 19 18 17 16 15 15 15 15 14 13 12 12 12 12 11 10
9 10 11 12 14 16 19 21 22 23 22 22 21 22 23 23 23 22 20 19 17 17 16 16 15 14 13 13 13 13 13 13
16 15 15 15 15 15 16 19 21 23 23 23 23 25 25 26 26 25 23 22 20 20 19 17 16 15 15 15 16 16 15 15
21 20 19 18 17 16 16 17 19 22 25 25 25 26 27 28 28 27 26 25 23 22 21 19 19 19 18 18 19 18 18 17
18 21 23 21 20 18 18 17 18 20 23 25 26 27 28 29 30 30 30 29 28 26 25 24 24 23 22 21 20 19 19 19
19 20 24 25 22 22 20 21 19 18 20 23 25 27 28 29 30 31 32 32 31 30 29 28 27 26 25 24 22 21 21 21
15 19 24 28 25 22 22 23 19 17 16 19 23 24 25 25 27 28 30 32 33 32 32 31 31 29 29 27 26 25 23 22
18 18 21 26 25 24 24 24 22 18 17 16 18 23 23 23 23 24 26 28 29 31 33 33 33 32 32 31 29 28 26 24
13 16 21 25 27 28 27 29 27 22 21 17 17 21 21 25 26 24 25 26 26 27 28 31 33 34 35 34 31 30 28 26
7 10 13 18 23 25 26 26 25 22 21 19 19 21 23 25 27 29 30 29 28 29 30 30 32 33 35 35 33 31 29 24
5 7 11 14 15 15 15 16 17 18 16 16 17 19 20 23 25 28 30 30 29 35 32 35 33 35 35 35 33 31 27 28
2 1 6 9 10 11 10 10 12 13 14 16 18 19 21 22 23 24 24 24 28 30 27 26 33 39 36 33 39 31 26 25
5 5 3 3 8 10 9 8 8 10 12 13 15 18 19 21 23 24 26 26 25 24 24 25 26 32 34 40 51 46 41 58
11 11 9 9 7 3 6 8 8 10 9 10 12 13 16 18 20 21 23 25 25 26 27 27 25 21 27 26 14 43 55 56
13 13 13 13 13 12 7 3 5 9 12 11 12 12 14 15 18 20 20 22 23 23 26 29 29 22 25 23 12 18 28 46
14 13 13 12 12 13 15 18 12 16 15 13 12 13 14 14 16 18 20 20 20 21 22 26 28 30 27 29 32 24 15 18
19 19 19 16 15 16 15 21 21 19 17 16 14 13 14 15 16 16 17 17 18 19 19 20 24 29 31 32 28 33 35 34
16 20 18 18 16 13 17 17 22 21 18 18 18 18 17 16 14 15 16 15 15 16 17 19 20 22 28 31 36 26 31 38
9 10 17 20 19 16 8 11 17 21 22 22 21 20 19 18 17 15 15 16 16 17 17 18 19 23 25 27 35 43 30 32
16 12 8 9 10 13 16 16 16 18 20 20 20 21 21 20 19 19 17 17 17 18 18 19 20 23 25 27 28 31 40 40

GFSFLT2_850_spd_126.txt.gz
Wind_Speed
4 4 7 10 15 18 19 19 19 19 20 20 21 21 22 21 21 20 18 17 16 16 15 15 14 14 14 13 12 11 9 9
9 8 10 13 14 16 18 19 20 20 21 21 22 23 23 24 24 23 22 20 19 18 17 16 15 15 15 15 14 13 12 11
11 12 13 14 16 16 16 18 19 21 23 23 23 24 24 26 27 26 25 24 22 21 20 18 17 17 17 17 17 15 12 12
11 12 14 16 18 19 18 19 18 20 22 24 26 25 20 20 23 28 27 26 25 24 22 21 20 18 18 20 20 15 14 14
14 16 16 18 18 20 19 16 14 16 19 20 24 26 27 27 21 22 29 29 28 28 27 26 25 20 18 17 17 17 16 15
16 16 16 17 16 18 18 16 17 18 18 20 21 23 25 26 27 27 21 22 24 26 25 26 25 23 22 21 20 18 17 16
16 17 19 16 16 17 19 20 23 21 20 21 20 21 23 25 26 27 28 27 27 26 29 26 27 26 24 24 23 22 21 19
13 14 15 18 16 19 21 21 20 21 22 20 19 19 21 22 25 27 27 27 27 27 32 31 29 29 31 29 26 24 22 22
14 13 14 15 16 21 23 24 23 23 22 21 19 19 21 21 20 22 25 27 29 31 31 31 31 33 34 34 35 33 27 25
14 13 10 9 14 17 15 21 21 20 19 21 20 22 22 23 24 25 26 27 29 29 29 32 33 32 33 34 35 34 34 32
11 12 12 11 9 9 9 12 12 12 14 15 17 20 22 21 21 23 25 27 29 30 32 33 33 34 35 36 38 35 35 35
10 11 12 10 9 10 7 5 7 8 10 13 13 14 16 17 17 20 22 21 22 25 30 31 36 39 36 42 46 37 30 30
10 10 9 11 10 7 10 9 5 5 6 9 11 14 16 15 15 17 19 20 20 22 22 23 28 34 35 39 37 31 46 36
12 11 9 8 6 6 5 7 10 8 8 8 9 11 13 15 17 19 20 22 24 24 23 21 21 22 26 28 24 29 33 45
17 16 13 10 8 8 7 7 7 8 10 12 13 13 13 14 17 19 20 21 22 23 25 26 20 21 22 21 11 16 22 29
13 14 14 14 15 14 11 8 8 12 11 15 14 13 15 17 18 20 21 22 21 22 22 23 25 27 21 28 32 26 22 22
8 10 11 12 13 16 17 14 14 12 13 17 20 17 14 16 16 17 20 20 22 21 21 21 21 22 27 21 26 28 33 30
12 11 12 11 11 13 15 15 17 18 18 18 22 23 19 16 16 16 17 19 20 21 21 20 21 22 24 23 27 26 24 30
12 13 13 14 14 13 13 12 12 14 17 23 22 24 20 18 17 17 17 19 20 21 22 21 20 22 24 26 28 28 36 31
12 12 12 13 13 14 14 15 15 14 13 12 13 18 19 20 18 16 16 16 18 19 19 18 20 22 24 26 29 30 29 27

GFSFLT2_850_spd_129.txt.gz
Wind_Speed
4 3 6 8 11 14 16 17 17 18 18 19 20 21 21 21 22 21 20 19 17 17 17 16 17 17 16 14 13 11 9 8
6 5 6 7 10 12 14 16 18 20 20 21 21 22 23 24 25 25 24 23 21 20 19 18 18 18 17 16 15 14 13 10
10 8 8 10 10 13 16 17 18 20 22 23 23 24 24 26 27 27 26 25 24 24 22 20 19 20 19 19 18 17 14 13
9 13 10 10 11 13 15 14 17 19 21 22 23 24 20 19 21 26 29 28 28 27 25 23 23 21 20 21 22 19 15 15
11 11 6 9 11 12 14 13 13 14 15 17 18 19 20 23 22 25 29 32 31 29 29 28 27 22 18 22 18 19 17 17
11 12 10 11 12 11 16 16 17 17 15 19 19 20 20 22 22 24 23 20 25 27 27 26 27 25 23 22 20 19 18 18
14 14 16 13 15 16 19 18 17 18 19 17 15 17 19 19 21 23 25 24 24 25 28 30 30 29 27 27 28 25 24 22
15 13 14 13 14 17 19 23 21 20 22 20 19 18 17 17 20 21 24 26 29 27 25 28 31 31 33 34 35 34 30 26
17 16 13 13 12 13 19 22 24 21 19 23 24 23 20 21 19 18 18 19 22 25 27 29 29 33 37 37 36 35 33 33
18 18 16 14 12 11 13 17 16 19 18 20 19 23 23 23 23 23 24 22 21 25 26 28 29 35 40 41 41 40 38 36
16 18 18 15 11 11 10 15 9 8 10 17 16 18 18 18 17 18 21 23 24 23 26 28 31 34 37 29 36 38 39 39
13 14 16 15 11 11 10 10 10 10 11 9 9 13 15 15 9 12 15 13 12 13 18 21 25 32 36 38 37 35 40 42
14 14 14 15 14 9 8 10 11 9 10 13 11 12 13 12 15 16 19 17 17 17 17 19 20 21 26 29 37 39 41 43
14 15 13 12 13 14 12 8 8 9 10 8 11 13 17 17 16 16 18 19 20 20 21 22 20 15 21 26 24 26 28 31
12 13 13 13 11 11 11 11 6 9 12 11 11 12 15 17 17 16 17 19 20 20 21 22 26 23 17 17 14 14 20 24
11 11 12 13 12 11 12 10 9 10 11 12 12 14 13 15 18 19 17 18 20 23 22 22 22 28 25 17 20 28 28 25
12 12 12 13 13 13 11 10 11 10 11 11 12 13 16 18 17 19 20 18 19 23 23 21 21 23 25 24 20 21 24 28
11 12 12 14 14 13 14 14 15 13 15 13 12 12 14 16 19 20 21 20 19 20 21 21 20 21 24 25 24 22 19 22
10 11 11 12 12 12 11 12 11 11 14 14 16 15 17 16 18 20 20 21 19 20 20 22 19 19 22 25 26 27 28 29
9 9 10 11 11 11 11 10 11 11 12 12 12 13 14 17 17 18 21 19 19 18 18 16 17 19 21 22 23 26 27 30

GFSFLT2_850_spd_132.txt.gz
Wind_Speed
9 10 8 6 5 7 9 12 13 14 15 16 17 18 19 20 20 20 19 18 17 16 16 16 16 17 16 16 14 12 10 11
10 3 3 12 10 9 9 12 14 16 17 18 19 19 20 21 22 23 23 22 21 20 19 18 18 18 19 18 17 15 13 12
3 4 6 6 5 12 15 16 15 16 17 19 21 22 21 22 24 25 26 26 25 24 23 22 21 22 21 21 20 19 16 14
8 8 7 7 3 9 15 19 16 15 17 19 20 20 22 23 21 21 21 26 28 28 27 26 25 26 25 24 24 21 19 17
12 12 9 10 8 12 11 11 19 19 19 19 16 15 16 16 20 24 24 25 28 30 32 32 32 31 29 27 22 18 18 23
13 13 12 11 13 15 16 16 16 14 16 17 14 17 19 18 19 20 24 24 25 26 32 35 36 35 33 29 27 26 24 15
14 13 12 11 13 16 19 20 19 20 20 14 13 15 17 18 18 17 19 21 25 27 27 31 33 34 36 36 33 29 27 20
13 12 12 12 12 11 16 19 20 22 22 22 20 18 20 20 19 18 19 20 21 25 27 30 31 36 39 40 40 40 35 31
13 12 11 11 11 11 9 14 14 19 22 23 23 21 19 20 21 19 21 19 20 22 24 25 29 32 36 38 42 40 42 41
15 14 13 10 10 9 11 11 14 19 18 20 20 19 17 16 16 14 20 21 23 25 25 26 28 28 31 33 29 34 39 44
15 15 15 13 10 11 9 9 10 12 12 15 15 16 19 16 14 12 20 21 18 18 21 22 23 27 30 32 31 32 34 10
14 15 15 15 11 7 8 12 10 10 11 12 13 14 14 15 18 22 20 18 17 18 21 21 23 25 26 28 25 26 28 31
12 14 15 14 16 15 11 9 13 11 10 12 13 15 14 15 13 16 17 17 17 17 19 21 21 20 21 24 25 25 26 24
11 12 13 12 10 11 11 14 8 13 17 14 13 14 15 14 15 14 14 16 17 17 18 21 21 17 17 20 15 25 18 19
9 10 11 12 11 10 9 4 4 6 11 13 14 15 14 13 12 15 16 15 17 18 18 18 21 22 15 8 9 6 23 22
9 11 12 13 11 9 9 6 8 8 9 10 8 14 16 15 15 14 15 16 17 20 20 20 18 21 22 8 16 17 11 21
8 10 11 13 13 14 10 10 11 11 13 12 12 13 15 20 17 17 17 16 18 20 21 21 20 18 18 20 19 20 20 21
7 9 8 11 10 10 12 11 11 12 14 14 16 16 18 18 17 17 16 16 17 18 20 20 19 16 15 15 16 14 17 18
7 7 7 9 11 11 11 11 11 11 14 13 14 15 16 19 17 16 16 15 17 18 18 17 16 16 16 17 18 18 20 23
4 6 6 9 10 10 12 11 10 10 11 12 12 13 13 17 15 14 15 14 15 16 14 13 15 15 17 19 20 21 21 20

GFSFLT2_850_spd_135.txt.gz
Wind_Speed
7 8 7 6 6 3 4 7 9 11 11 12 12 14 15 16 16 17 17 17 17 17 17 18 18 19 18 17 16 14 13 15
5 3 2 1 2 2 6 8 9 12 13 13 14 16 17 18 19 19 21 21 21 21 21 21 21 21 22 21 20 19 17 18
1 3 7 5 5 4 3 9 14 14 14 14 15 16 17 18 20 21 22 23 24 25 25 25 25 26 26 25 24 23 21 20
7 6 7 7 10 7 7 10 10 11 12 13 12 14 16 17 19 20 21 20 22 26 28 29 30 31 30 29 29 26 24 22
14 14 11 11 11 11 9 9 11 15 14 11 9 8 9 12 14 17 21 23 24 25 26 30 34 35 35 34 32 30 28 26
11 12 12 12 11 11 14 15 13 8 11 17 14 14 16 14 19 19 21 20 24 24 26 28 31 37 38 37 37 35 32 28
9 8 9 8 10 10 11 16 15 13 10 9 15 15 17 16 20 20 19 19 21 22 24 28 28 29 34 38 39 40 38 35
9 9 10 9 8 8 10 11 12 12 14 12 11 13 15 15 17 19 18 19 19 20 22 25 27 29 31 30 33 37 36 36
9 9 9 8 8 8 7 8 8 10 13 13 12 10 13 19 21 18 19 19 22 21 20 22 24 23 26 28 31 31 31 36
10 8 6 6 7 6 9 8 9 9 9 13 12 12 13 18 21 21 18 23 23 24 25 26 28 27 28 28 27 29 28 34
12 11 9 9 6 7 7 9 10 11 12 13 13 12 11 14 15 18 20 20 25 25 24 25 26 26 27 25 23 22 20 24
9 10 9 9 8 6 6 9 11 13 12 14 16 14 13 13 14 16 18 22 22 23 23 21 21 26 26 26 25 23 18 16
7 8 8 9 8 8 9 13 14 14 13 13 15 15 15 13 13 12 12 16 18 20 18 18 17 19 22 21 19 19 16 10
7 8 8 7 6 8 7 6 3 4 11 14 16 16 13 13 13 12 11 11 12 15 17 18 16 14 14 14 12 20 12 9
6 6 10 8 6 5 2 3 4 7 10 11 14 18 18 17 17 16 14 12 13 14 14 14 15 15 11 4 5 5 19 19
6 6 7 8 8 7 7 6 8 10 12 13 13 16 19 18 20 19 19 18 16 16 15 14 15 14 10 5 9 11 7 18
4 5 7 8 8 8 7 8 8 10 12 12 11 13 16 15 17 18 18 17 18 17 16 14 13 13 9 9 8 8 10 15
6 5 6 9 9 9 8 8 9 12 13 15 16 16 16 16 15 14 14 15 15 14 14 13 13 11 9 8 8 5 10 13
7 4 5 7 8 9 9 9 10 12 14 15 16 17 17 18 17 16 16 15 13 13 11 14 14 14 14 12 11 12 15 19
7 4 4 5 7 9 10 11 11 12 13 12 14 14 15 15 15 15 14 14 13 11 12 11 10 9 10 11 11 12 14 16